GFSMA_sfc_wetblb_000.txt.gz
Wetbulb
76.17 76.24 76.87 76.29 75.54 75.93 76.09 76.49 75.93 75.76 75.68 74.74 74.79 74.79 74.33 74.59 74.81 75.46 76.10 76.54 76.65 76.31 75.59 76.21 75.97 75.43 74.53 75.61 75.28 75.43 74.56 74.66 74.27 74.31 73.36 73.74 73.74 73.51 73.66 73.78 74.16 74.38 74.77
76.31 75.93 76.49 75.58 75.60 75.90 76.81 76.11 77.37 75.79 75.38 75.15 74.38 74.69 74.45 74.63 75.11 75.61 75.57 76.36 76.39 76.86 76.35 75.86 75.99 75.83 75.09 74.90 75.30 75.55 75.18 75.54 75.74 75.34 75.07 74.88 74.84 74.27 74.28 74.14 74.45 74.38 74.72
77.21 77.62 75.66 75.26 76.20 76.02 75.98 75.81 76.16 75.86 75.25 75.08 74.76 74.81 74.83 74.93 74.99 75.56 75.91 75.62 76.06 76.55 76.99 76.45 77.05 77.04 76.29 75.23 76.03 76.14 76.34 76.15 76.27 76.06 75.99 75.77 75.52 75.60 75.52 75.29 74.99 75.01 75.27
77.49 77.35 74.44 74.84 75.79 76.03 74.96 74.62 76.19 74.23 74.60 74.20 74.12 74.25 74.33 74.48 74.82 75.25 75.52 75.30 75.32 74.93 76.73 77.04 77.15 77.24 76.34 75.93 76.36 76.86 76.89 76.64 76.19 75.79 75.69 75.92 76.05 76.00 75.91 76.11 75.96 75.98 75.88
77.43 77.16 76.53 74.27 75.88 74.42 74.11 73.71 74.05 74.40 74.90 74.67 73.63 73.72 74.13 73.81 74.20 73.99 74.26 74.72 75.41 75.29 75.08 76.53 76.48 76.91 76.38 76.14 76.83 77.50 77.00 76.80 76.32 75.97 76.05 75.92 76.03 76.41 76.21 76.18 75.85 75.70 75.92
77.01 77.01 75.73 75.68 75.82 74.20 73.40 73.42 74.56 74.56 73.93 73.41 72.78 72.36 73.05 73.52 73.78 73.59 73.62 74.32 74.74 74.92 75.28 75.58 76.83 76.17 76.65 77.09 76.75 77.19 77.31 76.85 76.92 76.65 76.05 75.85 75.65 75.95 75.80 75.75 75.81 75.84 75.76
77.42 77.40 77.37 76.12 77.31 75.89 75.03 75.32 74.84 73.34 72.60 73.69 71.65 71.71 72.13 73.06 73.23 73.43 73.52 73.63 74.11 74.34 74.70 75.11 75.11 75.51 75.95 76.35 76.31 76.47 77.51 77.74 77.52 77.20 76.61 76.26 75.83 75.57 75.49 75.31 75.37 75.67 75.80
76.10 75.39 75.40 74.45 74.89 73.86 74.41 74.48 74.86 72.92 71.92 74.01 70.62 70.26 66.93 69.38 71.47 72.86 73.22 72.77 73.41 73.92 73.79 74.58 75.36 75.87 75.76 75.89 77.05 76.37 76.67 77.03 77.60 77.51 76.95 76.01 75.78 75.62 75.51 74.92 74.86 75.11 75.16
74.52 74.45 74.34 74.21 74.23 73.70 72.52 73.69 73.56 72.59 71.00 72.08 73.24 70.35 66.01 65.00 67.68 71.07 72.53 72.63 73.03 73.11 73.71 74.05 74.52 75.13 75.91 75.79 75.90 76.90 76.86 75.81 76.83 77.33 77.16 76.50 76.20 75.86 75.74 75.43 75.06 74.85 74.75
73.13 73.39 73.54 73.54 74.02 73.15 72.70 72.63 72.47 72.27 72.51 70.53 72.30 72.53 72.18 70.41 66.75 65.09 70.58 71.79 72.87 72.51 73.45 73.61 73.57 74.62 75.69 75.79 76.14 75.45 76.28 75.45 76.11 76.86 76.92 76.90 76.56 76.68 76.60 76.32 75.78 75.36 74.94
72.40 72.30 73.10 72.48 72.81 72.17 72.61 71.92 71.55 72.15 72.52 71.38 71.18 71.13 71.10 70.47 71.25 68.56 66.10 67.83 71.37 72.33 72.90 73.52 73.82 73.70 74.56 75.60 75.73 75.00 74.45 74.80 75.24 75.57 76.11 76.51 77.04 77.39 77.52 77.41 76.98 76.57 76.23
70.43 71.89 71.20 71.31 71.57 71.38 71.33 71.25 71.92 71.73 72.61 72.64 71.98 71.99 71.24 69.61 68.65 68.98 67.91 67.57 67.91 69.16 71.85 72.66 72.96 73.38 73.99 74.25 75.19 74.19 74.77 74.01 73.60 73.96 74.08 74.94 75.93 76.73 77.43 78.03 78.02 77.97 77.79
68.10 68.85 69.67 69.46 69.22 70.45 70.54 70.86 71.48 71.09 70.58 71.10 72.14 72.04 73.19 72.50 72.66 71.30 70.44 69.83 68.85 69.34 70.04 72.22 72.94 73.58 73.66 74.11 74.37 73.75 73.51 72.63 72.37 71.96 71.80 72.45 73.57 74.40 75.61 76.38 77.18 77.68 78.15
67.57 69.09 69.08 69.20 69.35 69.48 69.70 69.82 69.42 69.48 70.55 71.20 70.81 71.88 72.49 73.93 74.41 73.39 67.96 68.11 68.52 68.66 69.55 70.43 72.39 72.93 73.70 74.14 74.41 73.16 74.15 70.39 70.24 69.86 69.83 70.32 71.09 71.99 73.05 74.15 74.84 75.38 75.83
67.81 67.76 68.62 68.75 68.91 69.13 69.65 69.57 68.43 68.67 68.72 69.63 69.98 70.99 71.44 72.24 73.97 73.87 72.66 71.07 70.68 66.56 66.48 68.33 69.97 75.02 74.11 74.66 74.50 75.07 74.96 71.75 69.54 68.95 68.48 68.51 69.20 70.07 70.99 71.66 72.15 72.22 72.43
69.28 68.86 68.71 68.60 68.54 68.74 68.64 69.09 68.90 68.74 68.55 68.32 68.14 69.48 70.22 69.15 70.83 72.57 73.01 71.32 71.87 70.46 66.39 68.62 69.17 72.96 74.78 74.16 74.89 75.58 75.42 72.24 69.67 68.53 67.88 67.51 67.95 68.78 69.34 69.65 69.67 69.61 69.85
69.40 68.94 69.16 69.00 68.67 68.56 68.58 68.05 67.77 67.01 66.60 66.76 67.37 67.91 68.25 70.36 68.72 69.38 71.21 72.53 72.04 71.47 67.01 67.77 69.35 72.17 75.17 74.26 74.72 75.62 75.76 76.27 75.44 68.84 68.04 67.19 66.65 67.12 67.88 68.13 67.93 67.97 68.44
69.40 69.05 69.11 69.24 68.76 68.56 68.62 68.11 67.00 66.71 66.02 65.25 65.70 66.60 66.96 68.22 68.76 70.69 69.91 70.63 70.59 71.17 69.54 68.92 69.39 70.27 73.05 75.40 74.94 76.73 75.96 75.00 75.64 70.22 67.86 66.95 66.12 65.72 65.54 65.74 65.45 65.69 65.76
68.72 68.91 69.03 68.29 67.89 68.13 67.89 67.72 67.36 66.08 65.50 64.94 64.90 63.76 63.31 64.90 65.27 67.55 70.13 69.24 68.58 70.39 70.37 69.69 68.12 69.60 70.09 71.78 72.92 75.38 76.06 76.13 74.79 70.86 66.83 66.43 65.94 65.60 64.95 63.80 63.33 62.71 62.28
68.73 68.97 69.24 68.73 68.49 68.30 67.73 67.43 66.36 65.60 64.97 64.30 63.45 61.69 60.86 62.54 65.07 66.76 66.97 69.83 70.10 69.17 70.00 69.03 68.31 67.80 69.07 72.17 72.28 71.23 72.42 73.26 72.99 74.36 72.62 71.03 69.69 66.68 65.01 63.37 62.66 62.53 60.46
68.10 68.63 68.05 68.09 67.79 67.21 66.74 66.73 65.34 65.13 64.14 63.45 62.81 60.02 60.34 61.29 61.44 62.05 63.01 67.75 67.66 69.08 67.84 68.40 66.92 67.10 68.44 69.36 69.37 70.69 70.60 72.34 73.77 73.87 73.22 73.74 73.63 73.55 72.93 65.27 68.67 65.45 62.21
67.60 67.86 67.33 66.87 67.16 66.46 60.59 61.31 62.48 64.47 63.71 63.12 61.69 59.69 59.73 60.58 59.84 60.71 60.67 60.12 64.58 66.85 68.86 67.90 66.60 66.70 69.26 69.47 69.67 70.58 70.15 70.00 68.66 73.52 72.99 71.93 73.54 72.49 73.24 73.82 69.47 66.57 62.50
67.53 66.71 66.58 66.63 66.69 66.94 60.89 60.41 60.98 64.27 63.34 62.28 62.47 61.47 58.86 59.53 59.75 59.37 59.52 59.64 59.90 63.23 65.29 70.30 67.96 68.30 69.67 70.25 71.32 70.67 71.67 71.72 70.42 71.26 74.14 70.62 72.78 71.65 73.66 73.06 65.12 63.69 61.59
66.82 66.18 65.96 66.33 66.14 65.76 59.48 59.54 60.32 64.41 64.60 63.30 62.65 62.57 60.39 58.83 59.27 58.45 57.25 57.67 59.52 61.47 67.94 66.95 70.21 70.00 71.29 72.19 72.39 72.45 73.78 73.46 74.14 73.33 73.88 69.76 71.86 71.39 73.62 73.70 64.53 62.81 60.98
65.55 64.99 65.79 65.97 65.78 65.75 57.47 57.97 60.01 64.27 64.96 63.77 63.82 63.01 62.00 60.20 58.45 57.37 55.92 56.18 57.52 62.11 63.90 63.14 64.22 64.83 64.12 64.06 68.53 71.60 70.42 69.44 67.48 70.59 72.39 70.97 70.83 70.75 72.62 72.82 72.12 62.91 59.80
65.13 64.81 64.95 65.89 63.32 65.37 59.03 56.42 59.23 64.63 64.14 65.33 63.57 65.01 59.53 58.77 55.32 54.44 55.15 55.85 56.38 58.59 65.18 66.93 67.93 65.19 64.68 67.61 63.26 71.56 71.31 69.90 69.02 68.02 70.35 70.14 70.24 71.31 69.12 71.89 72.15 70.07 68.07

GFSMA_sfc_wetblb_003.txt.gz
Wetbulb
76.82 76.17 76.56 75.42 75.86 75.06 75.65 75.87 75.93 74.50 75.41 74.86 74.69 73.99 73.80 73.73 73.97 73.96 74.72 77.37 76.87 76.66 75.74 76.57 76.85 76.35 75.51 75.00 75.31 75.45 75.15 74.98 75.25 74.38 74.05 74.50 74.71 73.87 73.54 73.77 74.21 74.44 74.58
78.44 75.63 76.70 75.39 76.41 75.65 76.16 75.64 76.82 75.33 75.30 74.76 74.27 74.36 74.31 74.21 74.40 74.69 74.33 76.62 77.52 77.20 76.68 75.92 76.81 76.85 75.98 75.01 76.10 76.02 75.98 75.71 76.14 74.99 75.22 74.83 74.58 74.01 73.91 74.23 74.38 74.45 74.61
77.59 77.81 75.65 74.93 75.23 75.87 76.71 75.93 75.62 76.25 74.28 74.31 74.08 74.21 73.95 74.95 74.40 74.49 74.58 74.69 76.54 77.40 77.24 76.93 77.10 77.47 77.29 75.85 75.82 76.82 76.91 76.59 76.67 76.45 76.19 76.07 75.76 75.39 75.25 75.26 74.95 74.90 75.47
79.17 78.36 74.54 73.70 75.08 75.48 75.42 75.33 74.80 73.98 73.92 73.94 73.49 73.55 73.51 74.21 74.42 74.70 74.65 75.03 74.79 75.45 77.04 77.42 77.29 77.44 77.20 76.29 76.68 76.88 76.69 76.81 76.82 76.57 76.47 76.37 76.48 76.20 76.13 75.98 75.90 75.98 75.93
77.26 77.77 75.28 74.51 76.07 74.63 74.10 73.89 73.86 73.43 73.33 73.26 73.12 73.80 74.01 73.28 73.32 73.55 74.36 74.60 75.10 74.84 75.21 76.80 76.55 76.88 76.87 76.45 76.81 77.46 77.17 76.89 76.77 76.55 76.35 75.97 75.82 75.90 76.10 76.23 76.27 76.10 75.67
77.71 78.28 77.69 76.48 77.02 76.12 75.62 74.79 75.21 74.36 72.94 72.81 72.35 72.07 72.88 73.29 73.40 73.01 73.01 73.66 74.11 74.57 75.14 76.11 76.55 76.20 77.20 76.96 76.93 77.20 77.82 77.50 76.99 76.93 76.40 76.08 75.93 75.88 75.83 76.02 75.87 75.74 75.91
77.57 77.42 76.91 76.38 76.80 74.82 75.74 75.51 74.46 74.55 73.13 74.01 72.04 71.03 71.98 73.31 73.06 72.88 73.30 73.25 73.53 73.59 74.54 74.99 76.24 75.97 76.86 76.77 76.53 76.77 77.65 78.08 77.43 77.07 76.70 76.18 75.80 75.57 75.47 75.41 75.15 75.46 75.58
76.94 75.55 75.75 74.70 76.24 72.69 75.65 74.24 74.14 71.67 71.98 72.59 69.85 71.29 67.46 69.52 71.44 71.84 73.61 72.99 73.21 73.23 73.27 75.56 75.78 77.10 76.57 76.79 77.24 76.72 76.83 77.11 78.08 77.73 77.41 76.65 76.12 75.77 75.46 75.00 74.84 74.84 75.07
73.89 74.75 74.62 74.24 74.37 74.19 70.73 73.49 73.13 72.46 70.27 72.56 73.05 69.73 66.70 64.84 67.78 71.11 73.52 72.96 74.34 72.81 73.19 74.10 75.46 76.07 77.55 76.38 76.85 77.49 76.63 75.67 77.06 77.61 77.54 77.01 76.15 75.54 75.41 75.31 74.91 74.83 74.68
72.84 73.22 73.49 73.21 73.63 72.91 73.14 72.58 72.18 72.07 71.75 69.64 72.14 72.55 71.92 70.53 67.62 65.73 69.91 70.25 74.63 73.50 74.19 73.66 73.85 75.31 77.01 75.95 77.06 76.46 77.01 75.50 76.00 76.79 76.98 76.94 76.63 76.32 76.12 75.71 75.53 75.29 75.00
72.48 72.06 72.80 72.76 72.44 71.86 73.08 72.19 71.88 72.39 72.49 71.02 70.83 71.34 71.30 71.57 71.45 69.51 66.19 68.65 71.39 70.98 72.91 74.02 73.83 74.16 75.72 75.90 76.21 76.80 74.83 75.62 75.37 75.65 76.20 76.58 76.78 77.16 77.18 76.93 76.93 76.26 76.13
69.84 71.73 71.35 71.57 71.94 71.50 71.23 70.98 71.76 71.28 72.21 72.55 71.68 71.85 70.42 68.95 69.52 70.27 68.62 67.69 68.16 70.75 71.32 72.12 73.61 74.06 74.66 75.38 75.72 74.49 75.01 74.23 74.28 74.40 74.75 75.46 76.25 77.16 77.81 78.11 78.04 77.71 77.56
68.14 70.08 70.61 70.57 69.88 70.93 70.65 71.63 71.76 70.72 70.47 70.03 71.52 70.31 71.52 71.16 72.16 71.68 70.56 69.40 69.16 67.39 69.37 70.75 73.73 72.16 72.37 74.49 74.82 74.00 73.91 72.98 72.21 72.22 72.32 73.17 74.21 75.19 76.30 76.90 77.30 77.57 78.11
68.01 70.28 69.99 69.99 70.09 70.12 70.08 71.12 69.75 69.35 71.13 69.99 69.66 71.03 70.62 70.98 71.91 72.12 70.53 68.82 67.25 67.14 65.70 68.86 71.06 69.67 71.58 73.16 74.88 73.20 74.19 70.95 71.03 70.28 70.11 70.74 71.63 72.61 73.56 74.53 74.70 75.32 75.83
69.00 69.23 69.55 69.63 70.11 69.93 69.80 70.57 68.35 69.21 69.32 70.32 69.04 70.17 69.02 68.54 70.68 70.91 71.56 71.45 67.70 64.39 63.87 65.94 68.58 71.80 73.13 74.67 74.91 75.40 75.68 71.84 69.91 69.45 68.97 69.18 69.68 70.54 71.30 71.95 72.14 72.23 72.58
70.24 69.77 69.39 69.37 69.59 69.79 70.60 70.84 69.58 69.85 69.50 67.45 67.24 67.87 68.65 66.77 67.73 68.63 69.71 70.12 70.48 68.78 65.63 66.50 67.80 71.25 74.06 71.95 74.88 74.50 76.43 72.62 69.49 68.71 67.98 67.55 68.22 68.85 69.61 69.82 69.94 70.16 70.59
70.43 69.82 69.46 69.03 69.26 69.27 69.70 70.03 69.15 68.67 67.53 68.25 68.18 67.68 67.58 68.73 65.23 66.25 68.70 69.24 69.13 69.99 67.27 66.72 67.46 69.58 69.80 73.02 71.08 74.76 75.63 76.12 74.54 68.13 67.99 67.33 66.84 67.63 68.16 68.48 68.39 68.64 69.10
70.02 69.59 69.35 69.29 68.92 68.94 70.00 68.62 67.81 67.74 67.13 65.90 65.85 65.52 64.46 64.24 65.38 65.41 66.06 68.32 68.66 68.99 68.03 65.88 67.62 68.69 71.52 73.71 73.66 74.89 74.18 74.27 74.98 70.53 67.81 67.10 66.38 66.10 66.12 66.42 66.33 66.26 66.33
69.04 69.10 69.45 68.88 68.61 68.70 68.39 68.51 68.41 67.21 66.59 66.00 65.47 64.59 63.56 63.14 61.54 60.33 60.47 67.34 68.28 68.75 68.03 67.58 67.16 69.51 70.26 71.62 73.12 74.50 74.87 74.60 74.97 71.36 67.46 66.80 66.15 65.57 65.00 64.33 63.95 63.39 63.16
69.20 69.03 69.77 69.31 68.49 68.28 68.32 68.22 67.76 67.25 66.26 65.78 65.44 64.18 63.44 62.19 60.68 58.85 59.04 60.15 62.57 66.23 67.29 67.07 68.32 68.27 68.95 70.84 71.89 69.07 70.44 72.86 72.53 73.56 71.96 71.68 68.99 66.82 65.37 63.73 63.37 63.08 61.16
68.69 69.00 69.36 68.61 67.86 67.99 66.35 67.67 67.63 66.37 65.88 65.15 65.09 64.83 63.89 62.31 60.88 59.75 59.08 58.70 58.74 58.95 59.55 67.38 66.91 67.85 67.43 67.79 67.57 69.69 68.61 72.78 73.29 74.59 73.22 73.84 73.37 73.07 71.87 65.68 68.67 65.74 62.48
68.91 69.33 67.85 68.27 68.64 66.14 62.12 61.80 63.61 65.01 65.76 64.85 63.87 64.21 64.70 62.60 61.18 60.69 59.61 59.77 59.56 58.40 58.10 58.27 66.86 66.87 68.29 68.44 68.15 67.60 69.69 69.89 69.33 73.44 73.38 71.61 72.22 73.72 73.97 74.39 69.40 66.87 62.76
69.93 69.31 67.66 67.41 67.77 68.66 60.59 62.43 63.07 64.13 64.56 65.24 64.80 64.27 63.13 63.00 62.32 60.64 58.15 58.69 59.26 59.78 60.33 60.98 59.33 65.12 67.59 69.19 69.45 69.81 71.18 70.59 70.49 72.07 74.85 71.84 73.78 70.95 73.48 73.10 65.96 65.28 62.73
69.49 68.59 68.00 68.21 67.88 66.92 59.51 60.48 62.01 64.30 64.65 65.83 65.90 65.79 64.94 63.06 62.78 59.85 57.67 56.46 57.23 58.85 60.27 62.06 64.87 64.33 67.63 71.20 71.33 69.41 71.77 71.43 73.35 73.25 72.66 70.10 71.07 71.14 73.57 74.32 64.84 63.93 61.81
68.03 67.41 68.02 67.15 68.38 68.01 58.12 58.28 61.69 64.26 65.34 65.70 65.82 66.04 65.58 63.00 60.36 57.82 56.93 55.95 57.27 58.10 59.98 59.49 59.57 60.29 63.43 64.29 67.50 71.76 68.18 70.59 69.25 70.33 73.80 72.90 71.57 71.18 70.81 71.44 70.41 63.08 60.78
66.73 65.78 65.76 66.92 63.62 67.65 61.77 56.55 59.46 63.31 65.49 64.04 65.19 65.45 60.75 60.48 56.04 54.69 56.34 57.02 56.08 57.04 57.26 58.63 62.16 62.06 63.43 67.44 63.00 69.67 71.60 67.54 68.88 67.60 71.39 70.78 69.85 68.54 70.90 72.22 71.52 68.20 67.25

GFSMA_sfc_wetblb_006.txt.gz
Wetbulb
77.77 77.48 77.84 77.07 76.88 76.94 75.32 76.27 76.82 75.79 75.31 75.40 75.33 74.87 73.55 73.48 73.52 73.67 74.57 76.93 76.73 77.04 76.77 76.91 76.27 76.37 75.84 75.15 75.43 75.30 75.24 74.60 74.29 74.21 74.06 74.51 74.82 75.20 74.71 74.30 74.57 74.94 74.99
77.36 77.07 75.96 76.39 77.34 75.40 77.44 76.22 76.54 75.61 74.99 75.10 74.35 74.61 74.11 74.49 74.48 74.71 74.55 75.13 76.41 76.59 76.92 76.93 77.03 76.89 76.68 75.92 75.65 75.90 76.12 76.02 76.26 75.56 75.39 74.99 75.03 75.34 75.06 74.93 75.12 75.10 75.31
78.52 77.89 76.65 75.55 75.58 77.30 77.69 76.84 76.01 75.20 74.70 74.27 74.14 73.01 74.56 74.30 73.65 74.44 74.36 74.60 74.42 76.50 76.91 76.68 77.04 77.85 77.69 76.27 76.04 77.08 76.72 76.40 75.99 76.20 75.75 75.53 74.98 74.90 74.90 75.01 75.26 75.21 75.14
78.78 77.11 76.03 75.01 75.95 76.57 75.25 75.86 75.33 73.77 73.96 73.40 73.71 74.03 73.95 74.10 73.56 73.86 74.38 73.95 74.47 74.64 76.31 76.81 76.92 77.02 77.84 76.97 76.69 76.32 77.10 76.66 76.43 76.08 76.22 76.29 75.94 75.97 75.49 75.39 75.52 75.44 75.41
78.50 77.36 75.99 76.22 76.80 74.91 74.39 73.97 73.66 73.88 72.31 71.72 72.33 73.03 73.49 73.63 72.43 72.72 73.25 73.62 73.64 74.05 74.56 75.72 75.85 76.01 76.99 76.92 77.34 77.08 76.72 76.62 76.42 76.47 76.39 76.27 76.04 76.17 75.89 75.76 75.71 75.56 75.63
78.06 77.01 76.39 75.63 75.39 74.72 74.03 73.56 72.81 73.04 72.66 72.60 72.06 71.32 71.89 72.75 72.61 71.45 71.26 72.96 73.30 73.45 73.68 74.49 74.66 74.47 76.71 77.15 77.09 77.06 77.13 76.86 76.36 76.49 76.39 76.17 75.74 75.39 75.46 75.54 75.65 75.75 75.69
77.42 77.25 76.51 76.09 75.59 73.88 74.33 74.44 73.82 72.61 71.22 73.12 70.56 69.57 71.03 71.65 72.07 72.78 72.70 71.57 71.79 72.88 73.14 73.61 74.80 74.01 74.68 76.08 76.44 76.65 77.23 77.68 77.31 76.97 76.70 75.71 75.36 75.28 75.10 75.10 75.09 75.34 75.19
75.87 77.19 77.17 74.97 73.96 73.03 73.12 73.47 73.59 71.25 71.04 71.33 68.58 67.28 65.40 67.50 70.39 71.52 72.21 71.71 71.76 72.55 72.19 72.83 73.59 74.40 74.44 74.83 75.05 76.60 76.42 76.86 77.91 77.69 76.97 76.09 75.56 75.18 74.97 74.59 74.43 74.61 74.66
74.84 75.97 75.77 75.10 74.59 73.96 71.01 71.78 72.20 70.28 68.64 71.07 70.39 67.63 64.35 62.71 66.11 69.70 70.90 71.55 71.31 71.26 72.11 72.43 73.06 73.26 74.45 74.42 76.05 75.99 76.26 75.86 77.20 78.01 77.47 76.57 75.76 75.45 75.30 75.09 74.66 74.28 74.25
74.30 74.13 74.45 74.44 74.35 73.04 72.01 72.11 71.27 70.85 70.92 68.24 69.92 70.84 69.10 67.67 64.57 63.33 68.55 70.13 71.51 71.03 72.05 72.04 72.20 73.16 73.30 74.44 75.63 76.25 76.14 75.42 76.04 76.88 77.51 77.29 76.69 76.20 75.93 75.51 75.02 74.50 74.42
74.17 73.23 74.74 73.97 72.71 72.14 71.69 71.50 71.29 70.75 70.13 69.29 68.51 68.71 68.71 67.52 68.15 65.89 63.42 65.75 68.74 71.73 71.05 70.99 69.92 70.95 73.11 73.64 73.72 74.11 75.52 75.14 74.94 75.26 75.91 76.49 76.92 77.22 76.95 76.34 75.81 75.48 75.37
71.83 73.53 72.14 72.79 72.89 71.84 71.32 70.43 71.45 70.70 70.15 69.69 69.35 68.60 67.27 65.89 65.45 64.56 63.88 65.00 65.88 68.02 70.86 70.20 70.17 70.43 71.04 72.98 74.95 74.68 75.07 74.51 74.15 74.02 74.26 74.91 75.84 76.77 77.62 77.62 77.35 76.97 76.69
71.30 71.78 73.05 73.19 71.26 71.54 71.37 71.09 70.28 69.80 69.33 68.50 68.09 67.86 68.13 67.75 68.20 67.14 65.56 64.09 64.11 66.11 68.22 70.18 69.81 69.53 69.83 70.78 70.83 72.60 74.47 73.07 72.88 72.30 72.36 73.12 74.10 75.08 76.12 76.84 77.37 77.57 77.90
70.91 73.05 72.24 72.44 71.66 71.71 71.36 71.34 69.82 69.52 69.90 69.33 68.50 68.39 68.51 67.70 68.66 67.25 65.85 64.09 61.38 62.58 65.16 66.66 69.51 70.47 71.02 69.66 70.02 71.09 69.52 70.61 71.17 70.59 70.75 71.06 71.65 72.91 73.95 74.62 75.16 75.66 76.24
70.07 70.63 71.53 71.39 71.50 71.20 70.77 71.14 69.14 68.74 69.52 68.85 68.10 67.83 66.11 65.60 66.18 66.15 66.94 65.89 62.90 58.86 59.93 64.27 66.58 69.02 69.90 70.13 69.91 68.92 67.33 70.39 69.87 69.47 69.03 69.31 69.98 70.68 71.59 72.36 73.00 73.07 73.23
72.62 71.79 71.27 70.82 70.64 70.64 71.01 70.09 69.12 68.35 68.04 67.67 67.27 67.11 67.32 65.72 64.68 64.95 63.61 64.38 64.04 62.05 59.03 63.25 65.70 68.52 68.90 71.27 70.93 70.25 71.66 71.04 70.06 68.71 68.17 67.95 68.71 69.28 69.94 70.45 70.59 70.91 70.96
73.00 72.01 71.29 70.44 69.76 69.22 70.11 69.35 69.43 68.20 66.55 67.84 67.54 66.50 66.46 65.68 63.32 62.75 62.25 61.65 60.60 60.22 60.03 62.60 65.72 68.02 68.81 68.50 70.05 72.05 72.44 72.12 72.50 67.79 68.01 67.37 67.08 67.82 68.58 68.96 68.97 69.15 69.46
72.44 71.62 71.00 70.18 68.88 68.94 69.08 68.04 67.63 67.77 67.02 66.27 66.41 65.95 65.56 63.69 63.22 62.06 60.37 59.55 59.25 59.51 59.40 60.86 64.08 66.27 67.37 68.36 68.23 69.10 70.80 71.42 71.20 69.94 67.12 66.63 66.28 66.20 66.20 66.65 66.72 66.65 66.96
70.93 70.95 70.63 69.57 68.65 68.71 68.84 68.33 68.14 67.38 67.31 66.92 66.37 65.18 64.96 63.96 61.88 61.23 60.26 59.08 58.72 58.54 58.30 58.62 62.18 65.69 66.88 67.97 68.28 69.84 69.28 69.55 70.48 68.62 66.51 66.02 65.90 65.67 65.04 64.39 64.29 63.88 63.70
70.95 70.66 70.50 69.96 68.94 68.83 68.59 67.90 67.65 67.03 66.00 66.25 66.45 65.25 64.61 63.48 62.26 60.73 59.62 58.78 57.99 56.60 57.46 57.30 58.54 62.28 65.37 66.73 67.63 66.45 67.86 70.22 70.07 72.31 70.99 69.46 67.55 66.52 65.49 63.86 63.72 63.72 61.73
70.78 71.15 70.10 69.70 69.40 68.75 67.02 68.12 67.59 66.77 66.47 65.65 66.07 64.92 64.34 64.47 63.20 62.14 60.19 59.35 57.71 55.76 56.22 56.06 56.62 58.64 60.98 64.56 64.87 65.59 66.51 68.17 69.52 70.27 70.05 71.26 70.72 69.84 68.55 65.02 66.98 65.60 62.85
71.07 70.88 69.42 69.09 68.86 67.46 63.22 64.93 65.58 66.63 66.14 65.04 64.00 64.40 64.27 63.83 63.41 62.47 61.61 61.06 59.26 56.76 55.48 55.66 56.28 55.48 57.24 62.17 65.87 65.74 65.36 66.09 65.40 69.73 69.58 69.70 72.05 70.87 71.47 70.39 67.54 66.44 62.86
70.96 70.16 69.40 68.60 68.31 68.07 61.77 61.97 64.10 64.92 64.61 64.34 64.48 64.27 62.84 63.70 62.80 62.19 61.69 60.70 60.14 58.97 58.95 57.53 56.80 57.22 57.58 59.94 64.18 65.49 65.25 65.00 65.33 68.43 69.46 68.10 71.14 70.41 72.30 71.94 66.46 64.61 63.39
70.46 69.27 68.38 68.75 68.16 67.03 60.28 59.70 61.84 64.22 64.49 64.42 64.73 64.02 62.78 62.69 63.09 62.08 60.54 59.56 59.19 57.78 58.34 59.01 58.57 58.78 59.73 61.63 62.26 66.09 66.29 65.73 68.00 69.51 70.60 65.82 69.56 69.29 71.55 72.23 65.96 64.78 62.82
69.30 68.81 68.67 67.97 66.74 67.25 59.63 57.59 59.40 63.83 63.41 63.33 64.91 64.04 63.55 62.12 60.71 58.15 58.48 58.08 56.41 57.01 59.19 58.58 58.23 58.35 58.75 59.67 61.02 64.19 64.80 63.83 64.26 66.08 69.79 67.22 68.95 68.80 69.48 70.22 68.60 64.23 62.12
68.52 66.54 66.45 67.58 65.24 67.93 57.78 57.26 59.70 59.48 59.96 61.39 63.60 63.92 59.85 58.78 55.22 53.17 55.72 56.78 55.92 56.61 56.69 57.73 57.50 59.67 58.87 58.79 59.68 60.98 63.84 64.12 63.19 64.57 68.33 67.14 68.13 67.34 65.92 69.04 67.93 64.07 61.79

GFSMA_sfc_wetblb_009.txt.gz
Wetbulb
72.49 72.19 72.68 71.66 72.68 72.78 71.64 72.28 72.58 71.94 72.48 72.95 72.28 72.05 71.08 70.08 69.92 72.98 72.20 76.43 76.27 76.60 76.91 76.64 76.16 76.09 75.50 75.20 74.90 74.64 75.07 74.34 73.96 73.71 73.73 74.21 74.75 74.90 74.74 74.34 74.47 74.75 74.99
74.02 72.96 71.85 72.06 73.25 72.19 73.40 72.38 72.24 71.97 71.50 72.11 72.34 72.10 71.73 71.66 70.65 71.05 72.69 73.84 76.11 76.60 77.17 76.76 76.73 76.78 76.53 75.57 75.72 75.87 75.84 75.16 74.92 74.42 75.07 75.08 75.61 75.19 75.16 74.67 74.80 75.11 75.17
73.17 72.89 71.63 72.09 72.01 72.71 72.87 72.99 72.89 72.80 72.14 72.36 71.03 71.70 71.76 71.74 71.05 70.76 71.83 73.13 74.55 76.76 76.58 76.44 77.30 77.10 77.46 76.68 75.97 76.44 76.15 76.49 76.19 75.97 75.54 75.34 75.19 75.37 75.42 75.19 75.14 75.24 75.35
72.94 72.68 71.75 71.65 72.33 72.31 71.82 71.36 71.28 70.66 70.43 70.27 70.17 70.53 70.87 70.97 71.40 71.27 72.65 72.85 72.71 73.00 75.45 76.14 76.17 76.76 77.63 77.23 77.21 76.85 76.48 76.62 76.37 76.04 76.10 76.15 75.92 75.42 74.99 74.97 75.12 75.22 75.39
74.79 72.77 72.53 72.89 73.04 71.86 71.02 70.88 70.94 69.86 69.32 69.64 69.37 69.24 69.77 70.60 71.35 72.64 71.68 72.09 72.20 73.24 72.69 75.33 75.89 75.70 76.88 77.70 77.60 77.28 76.44 76.77 76.52 76.42 75.97 76.22 76.25 75.97 75.67 75.34 75.36 75.31 75.40
74.03 72.31 71.77 71.48 71.70 71.17 70.66 70.66 69.46 69.75 69.62 69.37 71.22 69.95 69.62 70.01 70.54 70.18 70.33 71.63 72.33 72.66 73.46 73.06 73.63 73.66 75.66 77.12 77.43 77.49 77.17 76.45 76.82 76.65 76.17 75.82 75.94 75.84 75.59 75.45 75.34 75.52 75.39
73.65 72.25 71.62 71.75 70.66 70.43 70.07 70.47 69.63 68.77 67.62 68.50 66.52 65.74 66.86 68.80 69.29 69.72 70.17 70.18 70.01 71.04 71.76 71.91 72.78 73.00 73.14 75.74 75.70 76.25 77.55 77.31 76.94 76.67 76.32 75.96 75.63 75.50 75.22 74.92 74.81 74.99 75.26
73.62 73.67 71.70 69.28 68.70 68.70 67.55 66.55 67.28 66.12 67.00 68.09 64.78 63.65 60.95 63.11 66.54 68.54 68.62 69.87 69.13 69.99 69.82 71.94 72.44 72.92 72.55 73.36 73.85 75.89 76.63 77.01 77.54 77.14 76.65 75.84 75.58 75.20 74.79 74.34 74.13 74.36 74.73
70.32 69.63 69.02 68.48 68.59 68.25 67.14 67.24 67.15 66.19 64.70 66.27 66.42 63.48 60.21 58.44 62.54 64.26 65.99 68.35 69.77 68.34 69.18 70.72 71.20 72.33 72.61 72.98 74.39 75.23 75.75 75.52 76.54 77.54 77.25 76.35 75.86 75.25 75.05 74.57 74.04 74.03 74.08
68.24 68.19 68.02 68.78 67.73 67.53 67.06 66.97 68.03 66.08 65.59 64.03 65.46 66.43 63.89 63.57 60.38 59.88 63.84 65.69 67.01 68.56 69.87 70.86 70.07 70.02 69.82 70.56 74.44 75.14 75.41 75.04 75.37 76.06 76.69 77.07 76.32 75.73 75.36 75.11 74.70 74.39 74.23
67.73 69.31 69.13 67.87 67.12 66.66 66.30 66.61 65.88 65.81 65.54 64.41 63.72 63.70 63.75 64.01 62.73 61.12 59.95 61.68 64.70 66.33 68.49 69.06 69.60 68.32 66.75 69.33 69.60 72.77 74.13 74.49 74.69 75.09 75.39 76.12 77.18 76.98 76.62 76.12 75.77 75.45 75.23
65.08 68.43 67.85 66.28 66.47 66.27 66.25 65.52 66.01 65.39 64.57 64.25 64.19 63.61 62.40 61.37 61.27 60.45 59.39 60.41 61.48 63.08 65.72 68.14 68.39 67.76 67.83 67.92 71.15 71.53 71.56 69.57 72.38 73.68 73.63 74.72 75.77 77.08 77.76 77.71 77.38 76.67 76.22
65.15 65.53 65.74 66.16 64.52 65.17 65.59 65.56 64.86 64.57 64.64 63.57 62.73 62.45 63.20 62.65 62.96 62.15 60.89 60.31 60.29 61.75 62.35 65.63 68.14 69.31 69.96 68.64 68.12 68.60 68.34 69.40 69.24 71.29 71.92 72.88 73.91 75.07 76.40 77.10 77.23 77.25 77.22
64.27 65.60 65.03 65.97 65.71 66.18 65.97 65.46 64.30 63.82 64.31 63.67 62.97 62.93 62.79 62.35 62.27 62.44 60.59 59.70 58.14 57.76 59.37 59.70 63.86 67.35 68.88 68.66 68.72 69.95 69.72 69.51 68.99 68.42 69.37 70.76 71.55 72.79 73.43 74.49 75.02 75.34 75.70
65.22 65.55 65.48 65.00 65.64 66.09 66.01 64.61 64.17 63.80 63.08 62.90 63.05 62.89 61.79 62.00 60.68 61.12 60.11 59.37 58.18 53.65 53.94 57.14 58.70 63.27 66.62 69.28 70.31 70.23 69.79 69.14 68.95 67.89 67.87 68.54 69.61 70.92 71.46 72.37 72.59 72.68 73.13
65.79 65.24 65.57 65.42 65.35 64.83 65.13 64.77 63.32 63.58 62.66 62.64 63.11 62.16 62.03 60.92 59.92 59.60 58.57 57.87 57.14 56.61 53.93 56.81 58.22 60.66 63.82 66.33 69.96 70.16 69.17 68.82 67.97 67.29 66.77 67.00 68.07 69.24 69.86 70.40 70.87 71.14 71.44
66.22 65.71 65.64 65.09 64.74 64.75 64.91 64.40 63.56 63.76 63.18 62.57 62.65 61.96 61.50 60.58 58.94 58.63 57.79 56.50 55.61 55.23 54.25 55.69 57.85 60.16 63.31 64.65 66.64 69.90 69.65 69.34 69.27 67.84 67.15 66.50 66.59 67.57 68.50 68.84 69.20 69.76 70.21
65.49 65.25 65.06 64.96 64.78 64.39 64.23 63.57 62.50 63.45 62.46 61.77 61.78 61.10 61.41 61.76 58.75 57.95 56.81 55.80 55.05 55.27 55.63 53.04 55.77 57.61 59.78 62.75 65.49 66.77 67.76 69.68 70.75 69.94 67.94 66.10 65.29 65.37 66.26 66.75 67.02 67.31 67.44
64.33 64.17 64.88 64.30 64.00 63.85 63.79 63.83 63.38 63.08 62.36 62.17 62.33 61.36 60.48 59.84 58.08 57.81 57.35 56.13 55.53 56.66 55.39 54.50 54.46 57.01 59.09 60.71 62.74 65.77 66.79 67.17 69.05 69.89 66.09 66.03 65.57 64.65 64.50 63.87 64.29 64.35 64.10
64.68 65.09 65.18 64.57 64.21 64.27 64.24 64.38 64.00 62.24 62.81 61.90 62.70 62.00 60.79 60.14 58.84 58.18 57.23 56.23 55.99 54.58 54.08 53.52 54.42 55.26 57.09 59.10 60.50 61.53 63.71 66.41 66.88 69.35 68.31 67.42 66.29 65.90 64.99 63.59 63.43 63.62 62.07
65.56 65.01 64.64 64.30 64.26 64.91 65.41 61.75 63.12 64.05 63.42 61.56 62.06 61.72 61.43 61.82 63.71 60.71 58.64 57.97 55.93 56.53 54.18 53.58 53.20 54.71 55.23 55.62 56.43 58.67 60.58 64.38 66.23 68.00 67.26 66.66 66.63 68.52 67.73 65.03 66.10 65.59 62.89
65.02 65.09 63.88 63.23 63.41 65.13 62.44 62.95 62.39 60.35 61.28 60.34 59.85 60.28 60.65 63.08 61.56 62.42 62.33 62.38 61.14 57.16 54.45 54.16 54.43 54.20 55.18 56.20 57.40 56.99 58.70 61.02 61.49 67.56 67.64 66.88 69.25 68.30 68.83 67.69 66.34 65.37 62.56
64.26 62.84 63.87 63.58 62.74 63.23 62.20 61.78 62.86 59.98 59.51 59.67 59.73 59.69 59.96 62.20 61.72 59.70 60.24 61.18 61.21 61.07 60.30 57.77 55.49 55.74 56.06 57.03 57.31 56.73 57.39 59.17 62.18 65.08 66.88 65.12 67.74 67.54 69.40 70.26 65.37 63.59 62.44
63.12 63.27 63.19 62.83 63.14 63.29 60.54 60.00 60.82 58.95 59.87 60.48 60.39 60.11 59.69 59.51 59.38 58.86 57.33 56.06 56.59 57.35 57.85 57.84 57.55 57.17 57.68 58.16 57.95 57.87 57.93 58.66 63.06 65.05 66.53 63.13 65.92 66.96 69.32 70.91 65.65 63.97 62.23
63.58 63.93 63.41 62.49 62.34 61.36 58.00 57.64 58.46 57.93 58.22 57.60 59.23 59.78 59.72 58.14 57.37 55.87 54.23 53.73 55.03 56.51 58.13 58.03 57.62 57.75 58.22 58.35 58.65 57.78 57.14 57.84 58.34 62.61 65.70 64.85 65.01 66.07 67.65 69.08 69.18 64.23 61.75
63.29 62.82 60.58 62.45 60.78 59.19 57.81 57.33 57.24 56.67 54.13 56.37 58.16 58.72 58.66 55.68 53.40 52.87 52.82 53.96 55.21 54.52 54.75 56.04 56.33 57.20 58.18 58.52 59.62 59.13 57.26 58.60 59.35 60.50 64.41 64.66 64.42 64.62 62.46 66.65 68.07 66.40 63.43

GFSMA_sfc_wetblb_012.txt.gz
Wetbulb
71.55 71.41 71.66 71.08 70.80 71.68 70.68 71.48 71.70 71.23 70.94 71.15 72.06 71.94 70.94 70.26 69.56 71.84 71.98 75.61 75.80 76.23 76.97 76.62 76.16 75.64 75.18 74.69 74.09 74.08 74.37 74.15 73.55 73.52 73.86 73.71 73.56 73.32 73.17 73.17 73.48 73.93 74.06
73.20 71.05 71.30 70.36 71.62 71.58 72.22 71.99 71.37 70.86 70.78 71.47 71.54 71.72 71.82 71.32 70.61 71.18 72.04 73.10 76.36 75.93 76.58 76.80 77.29 76.55 75.90 75.28 74.86 74.50 74.84 75.58 74.75 74.12 74.54 74.57 74.76 74.89 73.95 74.17 74.53 74.29 74.92
72.31 72.67 70.65 70.24 70.39 71.30 71.57 71.79 71.22 71.06 70.41 70.87 70.45 70.91 71.14 71.59 71.64 71.47 71.71 71.86 73.64 76.36 76.10 76.04 77.13 76.86 77.42 76.05 75.52 76.15 75.98 75.68 75.63 75.16 74.99 75.15 75.37 75.68 75.40 75.50 75.32 74.92 75.07
72.38 71.95 70.08 70.38 71.04 71.12 71.23 69.39 69.78 69.66 69.27 69.20 68.68 69.24 69.12 69.94 70.68 70.52 69.99 72.83 72.71 72.92 74.83 75.68 75.74 77.06 77.21 77.09 76.92 76.43 76.38 76.20 76.20 75.88 75.62 75.53 75.33 75.17 75.27 75.40 75.20 74.95 74.97
74.39 72.02 70.96 71.45 71.17 69.75 69.19 69.46 69.28 68.83 68.04 68.26 68.85 69.30 68.97 69.09 69.83 71.42 70.55 70.25 71.69 71.99 72.26 74.43 74.87 75.51 76.60 76.66 77.23 77.56 76.89 76.14 76.00 76.25 76.13 75.98 75.87 75.80 75.47 74.82 74.57 74.54 74.69
72.69 72.17 72.08 70.35 70.54 69.77 69.16 68.87 68.06 67.95 68.24 67.66 69.34 68.65 68.08 68.15 68.58 68.74 69.67 71.10 70.75 72.09 72.41 71.58 72.73 74.20 75.37 76.14 76.32 77.44 77.59 76.72 76.35 76.38 76.07 75.62 75.39 75.64 75.26 75.21 74.88 74.93 75.03
72.79 71.28 70.27 70.57 70.12 68.77 67.74 67.04 67.34 66.78 66.40 66.98 64.55 64.15 65.32 66.47 66.47 66.86 68.40 69.27 69.72 70.21 70.08 71.90 71.58 72.37 72.88 74.87 75.02 75.28 76.93 77.62 76.75 76.30 76.32 75.77 75.31 75.26 75.34 75.06 74.81 75.01 75.16
72.35 72.45 70.42 68.60 68.05 67.03 65.62 65.74 65.27 64.20 64.93 66.26 63.53 61.57 59.28 61.56 63.92 65.52 65.84 67.39 68.33 69.27 70.09 70.27 70.60 71.68 71.54 71.92 72.81 75.19 75.43 75.59 77.22 76.72 76.28 76.00 75.48 75.15 75.12 74.78 74.47 74.49 74.35
70.27 68.28 67.80 67.01 67.01 65.87 65.35 65.35 65.29 64.27 62.69 64.14 64.63 62.50 59.50 56.41 60.46 62.81 64.10 65.65 66.13 67.41 68.15 69.55 70.61 70.03 69.39 69.01 69.92 71.21 73.75 73.97 75.97 77.14 76.95 76.03 75.52 75.20 75.19 74.69 74.33 73.94 73.78
66.91 66.79 66.81 67.14 66.52 66.04 65.09 65.06 66.18 64.62 63.80 61.55 63.06 65.40 63.31 62.42 58.18 57.92 61.65 62.95 63.79 64.76 65.96 67.95 70.55 70.38 69.27 68.69 70.28 70.94 70.72 71.53 74.26 75.16 76.16 76.70 75.95 75.61 75.50 75.03 74.74 74.13 73.68
66.18 67.76 67.71 66.35 65.34 64.64 64.27 64.30 63.50 63.53 63.70 62.75 62.00 61.86 61.46 61.56 60.94 58.80 56.35 59.30 61.35 62.83 64.52 65.89 67.63 68.98 69.03 67.46 66.83 68.08 69.90 71.01 72.03 72.18 73.96 74.94 76.00 76.73 76.75 76.47 75.64 75.21 74.76
65.97 66.66 66.01 64.57 65.03 64.67 64.21 63.67 64.01 63.24 62.78 62.58 62.35 61.65 60.90 59.59 58.98 58.58 57.17 57.51 58.47 60.57 62.24 63.62 65.08 66.75 67.36 65.75 67.94 69.77 70.10 71.03 71.79 70.78 69.85 70.95 73.78 75.07 76.98 77.59 77.16 76.55 76.08
63.67 64.01 64.14 64.69 62.91 63.37 63.74 63.81 63.21 62.18 62.59 62.15 61.43 60.75 61.17 60.70 60.96 60.14 58.52 56.89 56.73 58.21 59.63 61.11 63.22 64.80 67.23 68.24 68.98 70.71 71.17 70.66 70.25 69.25 68.68 69.19 70.59 72.83 74.68 75.67 77.01 77.26 77.33
63.41 64.03 64.07 64.16 64.29 64.41 64.63 64.25 63.08 62.41 62.90 62.47 61.54 61.84 60.82 60.16 60.11 59.31 58.25 55.73 52.66 53.22 54.32 55.28 58.23 59.95 61.52 62.21 65.20 69.25 69.25 68.38 68.46 67.74 67.43 67.92 68.52 70.15 72.25 73.25 74.08 75.07 75.57
64.19 64.25 64.55 63.92 64.06 64.89 64.34 63.37 62.88 62.52 62.00 61.73 62.23 61.88 60.59 60.65 59.12 58.81 57.29 56.79 53.98 48.55 49.21 53.07 53.61 57.18 58.60 59.78 62.69 64.67 67.89 68.99 67.73 67.42 67.10 66.85 67.19 68.53 70.27 71.41 71.53 72.17 72.50
63.67 63.41 64.16 63.71 63.85 63.79 63.33 63.04 62.43 62.23 61.81 61.29 61.62 61.42 60.40 60.55 59.00 58.37 57.33 56.17 54.89 53.02 50.83 52.76 53.67 55.73 57.19 59.04 61.29 63.29 66.05 68.51 68.66 67.75 67.16 66.34 66.09 67.14 68.47 69.41 69.93 70.04 70.80
63.86 64.39 64.43 64.12 63.37 63.15 63.59 63.14 62.60 62.41 61.77 61.15 61.80 61.17 60.62 60.15 58.05 58.03 57.17 55.55 54.29 54.08 51.74 52.96 53.58 55.50 55.68 56.31 58.17 60.58 63.13 66.22 68.21 67.12 66.96 66.11 65.33 65.82 67.03 67.52 68.15 68.79 69.48
64.05 63.90 63.83 63.59 63.61 63.68 62.80 62.20 61.93 62.26 61.38 61.10 61.31 60.70 60.52 61.43 58.22 57.59 56.53 55.37 54.55 54.17 54.12 54.39 55.31 54.67 54.74 56.15 57.45 58.55 60.78 64.15 67.03 68.11 66.49 65.96 65.07 64.80 65.23 65.47 65.97 66.74 67.46
63.15 63.11 62.61 62.17 62.65 62.67 62.19 62.15 62.00 62.18 61.61 61.68 61.50 60.06 59.97 59.53 58.29 57.23 56.51 55.95 55.31 55.91 54.74 55.55 54.94 55.27 55.34 55.82 56.11 57.65 58.91 60.68 65.09 67.36 65.51 65.71 65.22 64.91 64.12 63.54 63.49 63.24 63.15
62.56 62.52 62.43 63.18 63.46 62.98 62.69 62.74 62.74 61.95 61.62 62.59 60.91 60.41 60.37 59.66 58.92 57.81 56.97 56.93 56.05 54.42 55.39 55.37 54.91 55.26 54.57 55.38 55.94 55.35 55.71 58.17 59.19 63.45 67.33 67.09 67.02 66.54 64.64 62.87 62.92 63.03 61.18
63.35 62.97 63.26 63.19 63.37 63.24 64.25 62.91 61.77 61.49 60.99 60.66 60.28 60.82 60.68 61.30 62.71 60.68 58.76 57.69 55.79 55.59 56.59 56.55 55.20 55.08 54.21 54.18 54.04 55.97 55.93 56.72 57.39 59.73 62.56 66.69 67.34 67.57 68.04 64.75 65.03 64.69 62.05
62.91 63.23 63.29 63.08 61.69 63.28 62.87 62.19 61.14 58.98 59.21 59.51 58.92 59.23 59.50 62.10 62.11 62.67 62.43 62.03 60.36 56.75 56.39 55.91 55.76 54.45 54.94 55.26 55.95 55.47 55.85 54.78 53.18 59.22 61.53 64.66 66.55 66.07 66.65 67.03 65.84 64.14 61.95
62.39 62.83 62.96 62.07 62.20 61.51 61.09 60.90 62.53 59.63 58.12 57.70 57.90 58.24 58.84 60.68 61.57 59.64 59.86 60.42 59.66 60.14 60.07 57.35 55.43 55.34 54.57 55.60 56.40 55.69 55.58 55.39 54.75 56.92 58.86 59.75 65.97 65.95 67.00 67.30 64.47 62.93 61.72
63.50 62.57 61.56 62.37 61.43 61.76 60.33 59.48 60.99 58.30 57.78 57.58 58.18 58.26 57.80 58.04 58.06 57.71 55.54 54.23 54.33 54.90 55.47 56.38 56.32 56.34 56.63 56.65 56.58 56.56 56.27 56.43 56.90 57.28 58.46 56.41 63.71 65.31 67.12 68.58 65.11 63.38 61.01
62.18 61.61 61.86 61.88 60.30 60.89 58.01 57.77 58.17 56.82 56.15 55.53 55.69 57.38 57.43 56.71 57.32 56.73 53.58 52.61 52.38 53.69 57.34 57.62 57.10 56.89 57.18 57.68 57.98 57.05 55.51 54.92 53.41 54.47 57.13 58.13 62.08 63.57 65.07 67.19 68.94 63.36 60.81
63.20 62.00 60.80 60.87 60.34 60.28 57.41 55.91 56.14 55.97 53.16 53.84 55.87 56.25 56.79 54.86 53.70 53.02 51.35 50.97 52.48 54.00 53.31 53.91 54.82 55.80 56.95 56.98 57.99 57.56 57.68 54.88 54.03 53.61 57.08 60.05 62.27 63.31 61.39 65.35 67.59 66.97 63.36

GFSMA_sfc_wetblb_015.txt.gz
Wetbulb
71.74 70.79 70.75 70.82 70.63 71.39 70.02 70.84 70.67 70.72 70.51 70.88 71.42 71.47 71.05 70.99 70.65 70.06 71.35 74.65 75.79 75.61 76.68 76.49 75.98 75.47 74.55 74.47 74.13 75.11 74.25 73.62 73.47 73.96 73.67 73.00 73.06 73.31 72.83 72.88 73.14 73.17 73.79
72.69 70.57 70.19 70.26 70.36 70.97 71.30 70.84 70.54 70.59 70.77 70.91 70.73 70.85 70.93 70.86 72.05 71.14 71.33 71.65 76.16 75.38 76.00 76.88 76.23 76.08 75.37 74.84 74.65 74.08 74.72 74.63 74.27 73.49 73.92 74.27 74.60 74.44 73.24 73.45 73.47 73.76 74.56
72.20 71.09 71.16 69.60 69.84 70.26 70.47 70.84 70.00 69.92 69.72 69.87 69.45 69.87 69.98 70.26 70.21 70.63 70.79 71.89 71.81 75.03 75.32 75.35 75.60 75.62 76.56 75.36 75.04 74.99 75.16 75.06 75.75 75.20 74.67 74.73 74.68 74.78 74.91 74.81 74.89 75.01 75.04
71.61 71.49 69.88 69.24 70.32 69.74 70.39 69.40 69.11 68.91 68.75 68.34 67.85 68.18 68.70 69.02 69.80 70.32 70.74 69.79 71.19 72.35 73.44 75.25 75.01 75.19 75.72 76.36 76.54 76.24 75.96 75.65 75.43 75.43 75.19 74.99 75.11 75.21 75.21 75.21 74.86 75.03 74.98
72.46 72.69 70.17 69.92 70.31 69.40 69.09 69.13 68.95 67.98 67.00 67.11 67.80 68.40 68.28 67.89 68.43 69.79 69.05 70.20 69.99 71.97 71.60 73.84 74.35 74.63 75.20 75.33 75.82 77.08 76.77 75.95 75.71 75.96 75.71 75.41 75.24 75.21 75.13 74.86 74.93 75.02 74.92
72.60 71.02 70.84 71.32 70.14 68.79 67.67 67.24 66.39 66.82 66.66 66.66 67.54 67.03 66.17 66.46 66.61 67.13 67.92 69.53 69.94 70.60 71.21 71.54 71.50 72.13 75.06 75.68 75.25 75.93 77.24 76.66 76.29 75.86 75.81 75.81 75.57 75.37 75.22 75.07 74.92 74.59 74.40
72.07 71.08 69.53 69.48 69.09 67.15 65.59 65.59 65.48 65.25 64.79 65.55 63.50 63.37 63.71 64.02 64.88 65.32 66.53 67.22 67.94 69.61 69.52 70.29 71.09 71.71 71.61 74.53 74.73 74.29 75.20 76.70 76.94 76.62 75.89 75.33 75.20 75.26 75.01 74.73 74.67 74.94 74.81
71.64 70.50 69.61 68.34 67.62 65.83 64.77 64.74 64.12 62.95 63.61 64.96 62.08 59.86 57.87 60.60 62.02 63.67 64.29 65.86 65.30 67.26 68.33 69.72 69.75 70.78 71.24 70.91 71.75 73.99 74.50 74.61 75.35 76.16 76.39 75.61 75.42 75.10 74.98 74.51 74.41 74.74 74.60
72.32 71.60 68.31 66.73 66.12 64.44 64.56 64.04 63.80 62.56 61.14 62.94 63.27 61.01 56.30 55.04 58.55 61.50 63.25 63.50 63.07 63.75 65.10 67.06 69.99 70.02 69.77 69.76 70.62 70.69 71.94 72.36 73.75 74.99 75.40 75.30 74.81 75.18 75.10 74.81 74.50 74.38 74.26
66.58 66.84 66.32 66.42 65.25 64.74 63.91 64.02 64.83 63.21 62.01 60.14 61.96 64.21 62.27 61.44 56.84 56.14 59.99 61.35 62.05 62.64 62.86 64.55 65.12 67.51 69.31 68.86 69.96 71.35 72.08 71.91 71.68 71.78 74.83 74.95 74.84 75.36 75.59 75.26 74.85 74.42 74.21
64.80 66.06 66.84 65.70 64.88 63.83 63.58 63.14 62.77 62.37 62.56 61.79 60.97 60.54 60.13 60.16 59.56 57.23 55.66 57.44 59.57 60.99 62.26 62.26 63.18 64.97 66.37 67.51 67.33 67.94 69.59 70.26 70.98 71.32 72.79 74.74 75.02 75.38 75.78 75.86 75.64 75.21 75.08
64.30 66.35 65.99 64.31 63.66 63.38 63.27 62.83 62.72 61.95 61.87 61.49 61.33 60.67 59.47 57.90 57.30 56.98 56.30 55.62 55.92 58.24 59.59 60.92 60.91 61.63 63.79 62.30 63.60 66.26 68.07 70.22 70.71 70.82 71.68 72.28 72.93 75.16 76.00 76.24 76.21 76.31 76.21
62.76 63.64 63.25 63.65 62.64 62.26 62.78 62.48 62.32 61.16 61.32 60.88 60.25 59.84 60.27 59.89 59.83 58.83 57.09 55.38 54.27 55.38 57.22 56.90 59.55 58.23 60.94 59.04 60.27 63.92 65.34 66.67 68.18 69.34 69.45 70.34 70.81 71.50 73.09 74.96 75.67 76.07 76.33
62.82 63.30 63.11 63.51 62.36 63.17 63.36 63.17 62.26 61.69 61.88 61.47 60.74 60.62 60.17 59.45 59.77 58.41 57.20 53.94 49.53 50.78 52.23 52.21 55.96 55.96 56.90 57.13 60.31 63.05 61.03 64.67 65.98 67.32 68.00 68.43 68.65 69.29 70.13 70.88 72.65 74.08 74.63
63.56 63.54 63.41 63.43 63.32 63.21 63.55 62.42 61.84 61.64 61.44 61.03 61.10 60.95 59.58 59.34 58.48 58.27 56.58 55.32 50.80 46.10 47.07 50.92 52.51 54.67 54.87 55.58 58.09 59.11 59.43 62.35 63.75 65.28 66.88 66.68 66.99 67.57 68.28 68.88 69.92 70.86 71.75
63.01 63.09 62.92 62.81 62.46 63.27 62.54 61.66 61.25 61.70 60.96 60.80 60.98 60.51 60.06 59.50 58.44 57.71 56.42 55.42 53.78 50.50 47.97 51.63 52.30 53.42 54.92 56.75 58.09 58.31 58.44 61.92 62.44 63.78 65.13 66.17 66.39 66.71 67.15 67.54 68.13 69.06 69.72
62.34 62.41 62.78 62.78 62.82 62.49 62.23 61.69 61.41 61.68 60.96 60.30 60.26 60.50 60.29 59.81 58.57 57.37 56.60 55.12 53.46 52.96 50.89 51.32 52.97 54.14 54.06 54.80 56.14 56.64 58.11 58.60 60.52 62.51 63.89 65.46 65.88 66.15 66.51 66.66 66.75 67.56 68.46
62.37 63.09 63.54 63.09 62.85 62.62 62.52 61.73 61.07 61.40 61.10 60.42 60.67 60.33 60.57 61.07 58.84 57.14 56.32 55.24 54.40 53.44 52.66 51.33 53.20 54.97 53.70 55.68 55.98 55.45 56.56 58.82 59.16 61.03 62.36 63.38 64.64 65.09 64.75 64.59 64.65 65.27 65.92
62.32 63.49 62.57 62.28 61.88 61.93 61.66 61.47 61.09 60.81 60.76 60.69 60.83 59.97 59.72 58.85 57.88 57.51 56.86 56.08 55.52 56.02 54.13 54.68 55.31 57.49 56.82 55.92 55.11 55.68 55.86 56.65 58.48 60.98 60.62 61.22 62.64 64.21 63.99 62.99 62.32 62.12 61.96
62.04 61.96 61.66 61.63 61.56 61.95 62.14 61.81 61.66 61.32 61.07 61.06 60.72 60.21 59.70 58.99 58.54 57.98 57.10 56.92 56.78 55.22 54.19 54.91 56.12 55.65 55.71 56.18 55.01 54.01 53.73 55.78 55.64 58.26 59.90 60.06 61.03 62.27 64.48 63.32 62.47 62.28 60.26
63.03 62.29 61.92 62.04 62.37 62.95 63.35 61.87 61.77 61.45 59.88 59.86 59.89 59.84 59.67 60.92 62.92 61.00 58.41 57.64 56.38 55.62 54.97 56.06 55.30 55.16 54.85 54.28 52.96 54.64 53.74 54.60 55.85 57.10 56.95 57.08 57.70 59.63 64.94 64.97 65.93 65.00 62.39
62.97 62.52 62.13 62.18 62.08 63.23 62.12 62.40 63.02 58.58 58.71 58.42 57.99 58.23 58.28 61.16 60.75 62.38 63.06 62.82 59.77 55.80 55.18 55.32 55.94 54.67 54.36 54.42 54.45 53.63 53.27 53.56 52.45 57.42 55.80 55.85 59.98 59.95 64.01 66.85 66.41 64.27 62.40
62.79 62.70 62.38 62.37 62.00 61.61 60.69 60.74 62.80 59.96 58.72 57.41 56.46 56.50 57.46 59.77 60.40 58.72 59.81 60.30 60.20 60.69 60.58 56.58 54.36 54.30 53.80 54.66 54.12 53.33 53.80 53.73 53.37 55.96 56.58 54.71 56.63 56.46 59.72 66.38 63.89 62.67 61.22
62.57 62.66 62.38 61.78 61.58 62.03 59.38 59.29 61.16 59.84 57.83 56.81 56.62 56.82 55.69 55.63 56.70 57.14 55.98 53.95 53.58 53.70 53.95 54.68 54.68 55.11 55.19 55.64 54.70 55.21 55.13 54.95 55.67 56.50 57.11 53.78 56.34 55.61 59.16 63.76 64.35 62.59 61.17
62.58 62.84 61.38 60.57 61.06 61.45 58.34 57.34 57.73 57.58 56.27 55.07 54.60 54.93 55.79 55.43 56.55 58.05 53.04 51.86 51.25 51.86 55.91 57.00 56.91 56.53 56.73 57.34 57.47 56.50 54.44 53.59 52.57 53.97 56.86 55.35 55.37 55.29 58.47 62.05 66.70 63.05 60.59
62.86 62.12 60.92 60.86 60.78 61.83 58.39 55.98 55.98 55.71 53.87 53.42 54.23 54.61 55.51 54.45 54.16 52.92 50.01 48.69 50.94 51.12 52.68 53.42 53.71 54.74 55.65 56.09 57.81 56.60 55.30 52.91 52.87 52.21 56.62 54.87 54.62 55.45 55.80 63.54 65.89 66.92 64.30

GFSMA_sfc_wetblb_021.txt.gz
Wetbulb
75.31 75.14 76.42 76.82 76.76 76.67 76.17 77.13 76.49 76.00 75.57 75.38 75.74 75.20 74.57 74.97 75.30 75.81 75.80 73.53 75.17 76.00 75.45 75.22 75.21 75.42 74.74 74.07 73.77 74.88 74.51 74.33 73.28 73.92 73.27 73.29 73.23 72.37 73.21 73.32 73.14 72.82 73.05
75.61 75.00 75.95 76.34 77.76 76.32 76.34 76.87 76.35 76.22 75.35 75.11 74.65 75.11 74.37 74.36 74.19 74.48 75.22 76.39 73.76 75.35 76.17 75.65 76.01 75.71 75.13 75.16 74.11 73.74 73.99 74.97 74.42 73.54 73.82 74.88 74.39 73.80 73.04 73.19 73.24 73.05 73.44
76.53 76.15 77.42 76.87 76.12 76.42 76.27 75.86 76.22 75.38 75.01 74.61 74.10 73.56 73.50 72.78 72.57 73.04 73.38 74.53 75.66 74.01 74.63 75.73 75.63 76.26 75.36 75.01 75.32 75.10 75.53 75.29 75.33 75.15 74.73 74.64 75.00 74.64 74.59 74.37 74.08 74.21 74.52
77.42 77.15 76.08 77.75 76.06 75.92 75.36 75.78 75.00 74.01 73.67 73.07 72.93 72.68 72.28 72.13 71.99 72.27 72.75 73.07 73.66 74.15 74.66 74.72 75.51 76.04 75.92 74.87 75.61 75.29 75.05 75.39 75.36 75.65 75.19 74.95 74.97 74.80 74.48 74.73 74.88 74.85 74.58
77.27 76.93 78.12 77.84 75.10 75.48 76.80 75.19 74.64 73.46 71.99 71.46 70.73 70.66 71.29 71.14 71.78 71.76 72.37 73.37 73.33 73.82 74.39 75.36 74.25 74.99 75.24 75.42 76.13 75.61 75.40 75.34 75.29 75.37 75.07 75.40 75.43 75.00 74.93 74.80 75.00 75.07 74.64
77.37 77.60 77.28 76.30 75.59 75.14 74.06 73.68 72.68 72.46 71.35 70.79 69.63 69.28 70.40 72.12 71.20 72.13 72.17 71.10 72.78 73.09 74.31 75.09 75.30 75.52 73.52 74.71 75.64 75.19 75.74 75.72 75.37 75.60 75.53 75.05 75.15 75.27 75.08 74.85 74.87 74.91 75.11
77.08 77.09 75.53 74.96 74.96 73.84 73.51 73.24 71.89 70.71 70.38 71.54 68.82 67.78 69.91 71.12 69.81 70.73 71.38 69.27 69.36 70.14 71.75 73.15 74.72 75.41 75.84 73.20 73.33 73.95 74.74 74.98 74.93 75.13 75.55 74.88 74.85 75.05 74.96 74.63 74.43 74.76 74.80
77.36 76.49 76.05 74.70 74.51 72.60 72.51 72.53 71.79 68.89 69.99 71.34 67.16 67.29 64.23 66.91 69.95 70.02 69.58 67.61 67.76 69.01 68.60 69.55 71.18 72.79 73.73 74.51 73.28 72.19 72.29 73.21 74.09 74.95 75.30 74.40 74.23 74.32 74.63 74.71 74.40 74.56 74.66
76.85 76.38 75.26 74.75 74.18 73.16 70.88 71.86 71.11 69.81 66.92 69.79 69.60 67.33 63.76 62.19 64.63 69.35 69.40 67.78 67.03 66.37 67.69 68.17 68.89 68.23 67.88 68.66 69.49 70.52 69.82 70.39 71.34 72.19 72.48 72.83 74.55 74.53 74.40 74.39 74.58 74.52 74.49
76.23 75.81 74.99 74.65 73.91 71.75 71.47 71.25 71.15 70.68 69.67 66.68 69.26 69.83 69.32 67.80 63.62 62.81 66.62 67.20 66.45 64.97 66.61 65.25 65.47 65.35 65.34 65.02 65.69 65.95 66.92 67.45 67.83 68.70 70.35 71.90 72.00 73.16 74.40 74.75 74.40 74.48 74.39
75.63 75.39 74.86 73.53 72.37 71.09 71.99 71.02 70.22 69.98 69.74 68.88 68.42 68.38 68.59 68.04 66.96 63.97 60.12 62.44 65.53 65.28 65.89 66.16 65.11 64.68 64.98 65.02 65.17 65.59 65.33 64.87 65.27 66.02 66.55 68.40 69.99 71.85 72.51 72.95 74.90 75.05 75.18
71.29 72.57 72.36 72.35 72.27 71.64 70.66 70.29 70.35 70.10 69.81 69.96 69.14 67.83 66.17 64.83 64.48 64.15 62.68 62.84 62.23 64.57 64.36 66.58 66.53 65.52 64.86 64.20 63.66 64.15 64.44 63.68 63.70 64.01 64.50 65.36 66.74 69.05 71.20 72.73 73.21 74.96 75.47
69.17 70.67 71.99 72.01 71.40 71.28 70.86 70.52 70.34 69.51 69.41 68.65 69.20 67.18 67.43 66.78 67.35 65.45 63.87 62.50 61.70 63.19 63.49 64.08 64.55 65.79 65.65 65.26 64.32 63.66 64.12 62.82 62.81 62.91 63.20 63.83 64.47 65.82 68.16 70.01 71.45 73.01 73.65
69.49 71.65 71.74 71.79 71.29 70.55 70.35 70.14 69.39 69.27 69.56 68.81 69.08 68.47 67.31 67.40 67.16 66.40 64.85 62.90 60.26 60.43 61.51 62.07 64.02 64.06 64.86 64.95 64.89 63.85 64.97 63.76 62.44 62.63 63.34 63.11 63.23 64.05 64.78 66.69 68.82 70.04 71.30
69.74 70.78 71.35 70.99 70.26 69.47 69.75 70.48 69.02 69.45 69.49 69.34 68.89 69.00 67.85 67.45 67.51 67.10 66.54 65.34 62.29 58.21 58.47 61.73 60.93 64.71 64.57 65.06 65.32 66.12 65.82 64.61 62.97 62.88 62.38 62.38 62.75 63.25 63.49 64.26 65.96 68.08 69.06
70.14 70.72 70.49 70.33 69.74 69.81 70.06 70.30 69.14 69.23 68.83 68.56 68.13 68.44 68.47 67.62 67.48 67.36 66.40 65.91 64.61 61.87 58.83 61.73 62.25 64.06 65.34 65.03 65.72 65.88 66.02 63.16 63.37 62.64 62.03 61.93 62.50 62.86 63.29 63.53 64.39 65.34 67.11
68.95 70.00 69.52 69.51 69.71 69.71 69.85 69.61 69.34 68.88 68.39 68.71 68.59 68.27 68.37 68.86 67.15 67.03 67.04 66.14 64.79 63.62 60.64 61.90 63.60 64.62 64.51 64.80 65.56 66.55 66.05 65.43 64.48 63.13 62.47 62.03 61.64 62.01 62.33 62.46 62.99 63.18 64.35
68.13 68.28 68.70 69.20 69.38 69.61 69.67 69.17 68.53 67.76 67.88 67.54 67.48 68.08 67.83 67.35 67.97 69.21 67.88 67.09 65.72 65.63 62.76 61.22 64.04 63.97 64.67 65.68 65.54 65.35 64.93 64.79 64.61 63.41 62.16 61.35 60.88 60.72 60.63 60.89 61.08 61.08 61.76
66.70 66.93 67.75 68.39 68.37 69.08 68.80 69.22 68.71 68.12 67.69 67.13 67.79 67.73 67.67 67.82 67.23 67.87 67.47 66.08 65.28 65.34 64.19 61.20 61.51 63.47 63.94 64.24 63.49 64.48 64.47 64.71 64.52 63.63 61.28 60.58 60.40 60.59 60.28 59.86 59.43 59.02 58.82
65.41 66.21 66.91 67.49 68.32 68.78 68.76 68.26 68.09 68.05 68.13 67.92 68.17 68.35 68.11 67.13 66.94 67.37 67.08 66.70 66.22 65.12 64.61 60.59 60.82 61.61 62.39 63.86 62.96 61.20 61.06 62.89 62.43 63.43 62.84 61.59 61.45 61.21 60.58 59.69 59.56 59.66 58.10
65.47 66.77 66.18 66.86 67.78 67.95 67.63 68.00 67.89 68.23 68.71 68.18 68.51 68.44 67.91 67.20 65.48 64.75 64.81 65.27 65.46 63.90 62.64 61.72 61.12 61.32 61.09 60.90 60.38 61.38 60.16 61.28 62.50 62.50 61.34 61.90 62.14 61.94 61.92 61.61 61.96 61.80 59.99
65.79 66.69 66.03 65.94 67.08 67.16 63.35 63.02 66.57 68.39 68.89 68.08 67.38 67.98 68.05 65.16 64.49 62.88 62.41 62.82 63.47 63.62 62.92 62.32 60.95 60.36 59.99 61.03 61.27 60.43 59.70 58.21 56.88 62.34 61.34 60.14 61.74 61.53 62.17 62.14 61.22 60.61 59.39
66.93 66.47 66.54 66.89 67.57 67.54 62.05 61.76 63.82 68.18 68.69 68.33 67.92 67.67 66.75 65.53 63.43 64.20 62.29 60.98 61.01 61.17 61.66 62.25 59.96 60.03 60.40 61.18 60.82 58.84 58.32 57.82 57.56 60.27 59.96 58.53 60.47 60.11 61.66 62.28 59.83 59.25 58.56
66.35 66.83 67.30 68.14 67.92 68.36 61.17 60.26 62.19 67.40 67.77 68.25 68.27 67.84 66.55 65.47 64.16 62.46 62.40 62.30 62.90 62.95 63.08 61.86 61.62 60.84 60.94 60.67 59.77 58.49 57.01 57.42 59.47 59.90 61.72 57.18 59.62 56.67 57.75 59.22 59.23 58.84 58.20
67.27 67.13 67.88 68.17 68.11 68.66 58.63 58.62 60.20 64.20 63.40 63.80 66.34 65.58 63.97 63.30 60.18 57.14 60.70 61.03 61.33 61.37 59.98 56.75 56.51 56.27 56.45 56.70 57.23 56.05 54.77 56.82 56.13 57.08 59.78 56.90 54.76 54.32 55.55 56.38 58.73 59.01 57.55
67.68 67.37 67.25 67.95 65.37 68.06 58.09 56.77 59.72 61.39 61.18 61.74 62.14 61.32 57.80 60.25 55.21 54.58 59.88 60.29 58.98 59.51 59.09 58.73 59.17 58.80 58.70 59.35 58.09 58.54 57.22 55.49 56.44 53.80 57.91 53.20 53.65 53.97 52.76 56.88 58.89 60.83 61.47

GFSMA_sfc_wetblb_024.txt.gz
Wetbulb
76.75 77.16 77.72 76.39 76.92 76.46 76.69 77.18 76.62 76.46 76.68 76.30 76.35 76.20 75.95 75.90 76.13 75.85 76.26 75.37 75.36 76.05 75.54 75.92 75.98 75.68 75.34 74.75 74.67 75.45 74.44 73.84 72.93 73.31 73.55 74.14 73.89 73.15 73.20 73.12 73.41 73.32 72.99
76.74 78.20 76.03 76.28 76.54 76.31 77.49 77.26 76.12 75.87 76.09 75.85 75.29 75.60 75.86 75.70 75.62 75.73 75.52 76.73 75.01 75.65 76.17 76.19 76.06 75.84 75.68 75.41 74.64 74.18 74.99 75.17 74.61 73.80 74.71 74.59 74.52 73.93 73.15 73.36 73.60 73.50 73.33
77.35 78.47 75.83 75.32 75.53 77.43 77.66 77.69 76.11 76.20 75.30 75.05 74.28 74.09 74.72 74.64 73.50 73.49 73.41 73.81 75.56 75.24 75.55 76.28 77.00 75.74 76.55 75.24 75.47 75.51 75.08 75.29 75.69 75.60 75.14 74.92 74.92 74.88 74.77 74.57 74.44 74.52 74.35
78.82 78.68 79.49 75.04 75.90 76.95 76.65 76.06 75.48 73.20 72.19 71.73 71.47 71.92 72.11 72.08 71.34 71.78 72.03 72.67 71.81 73.04 75.53 76.00 75.49 75.32 75.25 75.33 75.45 75.63 75.48 75.37 75.58 76.07 75.56 75.38 75.38 75.47 75.37 75.09 75.02 74.84 74.84
77.52 76.95 75.82 76.17 77.60 76.43 75.46 75.25 73.38 73.16 70.58 69.68 68.71 68.87 70.53 70.85 71.32 71.76 72.98 73.82 73.72 72.98 72.62 75.85 74.90 74.50 75.04 75.47 75.49 76.45 76.05 75.51 75.08 75.84 76.17 75.99 75.44 75.34 75.22 74.74 74.69 74.89 75.02
77.64 77.20 76.03 76.28 76.44 76.56 75.80 75.02 73.77 72.08 70.17 69.90 69.10 68.55 70.74 71.96 73.49 73.88 72.79 73.62 73.75 74.23 74.40 75.76 75.10 75.27 74.41 73.68 75.50 75.34 75.24 75.43 75.38 75.06 75.49 75.27 75.24 75.44 75.29 74.97 74.84 75.01 75.14
77.63 77.84 75.89 76.04 76.17 75.48 75.07 75.59 72.46 69.82 68.45 70.96 68.71 69.15 70.15 70.96 72.32 73.22 73.76 72.27 71.51 73.63 73.50 74.45 75.12 74.90 75.21 73.94 73.68 73.89 73.86 74.81 75.78 75.74 75.44 74.87 74.82 74.82 75.01 75.08 74.83 74.98 74.98
78.25 76.84 77.24 76.37 76.59 74.74 75.73 74.32 71.83 67.74 69.65 71.44 67.36 66.90 65.33 67.45 69.69 71.97 72.47 70.75 69.65 72.07 72.15 71.85 73.50 74.61 75.17 75.40 74.07 71.81 71.38 72.40 73.40 73.87 74.92 74.89 74.59 74.40 74.54 74.52 74.58 74.58 74.66
78.24 78.00 76.92 76.72 76.57 75.07 72.24 72.50 71.70 70.08 67.01 70.06 70.12 67.35 64.35 63.39 65.80 69.40 70.18 68.99 69.31 68.25 69.21 69.89 69.66 69.16 70.02 70.71 71.85 70.96 68.53 69.21 70.41 71.31 71.93 72.13 72.56 72.62 74.46 74.44 74.39 74.64 74.47
77.45 77.38 77.51 76.85 76.67 73.80 72.41 71.79 72.08 70.59 70.13 66.91 70.04 71.00 70.02 68.72 64.41 64.17 67.15 67.79 68.32 67.57 67.58 67.07 66.72 67.22 67.39 67.58 67.21 66.15 66.06 65.80 66.40 67.21 67.80 68.82 69.95 71.58 72.46 73.82 74.24 74.24 74.47
77.56 76.40 77.54 76.57 75.37 71.72 72.77 73.04 72.20 71.31 69.99 68.51 69.26 69.39 69.75 69.02 69.27 64.26 62.49 65.22 67.43 67.49 67.69 68.49 67.53 68.10 67.30 67.26 67.30 65.93 64.36 64.24 64.51 64.86 65.42 66.14 66.93 68.58 70.41 72.48 73.24 74.02 74.74
75.44 77.10 76.68 75.98 74.20 72.19 72.93 72.08 71.97 70.82 70.72 70.55 69.43 69.56 67.32 65.98 66.07 64.87 63.58 64.64 64.79 66.72 67.18 67.12 67.08 67.95 68.06 68.11 65.21 63.49 63.62 63.44 63.72 63.90 64.36 64.87 65.44 65.89 67.34 69.90 71.41 72.86 73.59
72.13 74.14 75.16 74.25 73.19 73.89 73.21 72.25 71.62 71.01 70.41 69.49 70.07 68.06 68.88 67.66 68.25 66.16 64.58 63.33 63.08 64.90 65.29 66.28 67.39 66.54 67.38 66.95 67.29 64.16 66.09 63.67 63.05 62.93 62.92 63.37 64.10 64.72 65.73 66.08 68.09 70.17 72.13
72.02 74.31 73.37 73.66 73.75 73.52 72.98 72.05 70.33 70.10 70.72 69.72 69.90 69.80 68.05 67.53 67.72 66.84 65.25 63.69 61.55 62.09 64.01 64.95 66.95 66.22 66.13 66.45 67.36 65.15 67.63 64.91 64.13 63.33 63.38 63.35 63.07 63.60 64.50 64.78 65.24 66.20 68.31
72.50 73.19 73.55 72.79 73.21 73.15 72.39 71.89 70.22 70.60 70.41 70.21 69.73 70.07 68.94 67.62 67.69 67.48 66.84 65.84 63.31 60.13 61.00 64.31 63.99 67.06 66.64 66.87 67.89 67.53 67.74 67.15 64.40 63.95 63.39 63.21 63.02 63.12 63.63 63.80 64.19 64.41 64.69
73.10 72.24 72.66 72.57 72.41 72.17 71.64 72.17 70.56 70.65 70.26 68.78 68.88 69.43 69.69 68.20 67.89 67.86 67.35 66.79 66.14 64.13 61.14 64.10 64.04 66.29 67.40 67.15 68.01 68.06 68.20 66.76 65.75 64.40 63.78 62.88 62.87 63.00 63.30 63.71 63.96 64.07 64.29
72.65 72.06 72.30 71.81 71.60 70.99 71.48 71.50 71.04 69.72 69.47 69.71 69.71 69.20 69.08 70.31 68.16 67.40 67.58 67.26 66.43 65.63 62.48 63.86 65.19 67.30 67.96 68.15 68.10 68.37 68.32 68.02 67.51 65.16 64.17 63.45 62.58 62.65 62.71 62.65 62.84 62.93 63.17
71.87 71.10 70.55 70.50 70.39 71.07 71.62 70.87 69.85 69.12 68.96 68.69 68.66 69.01 68.71 68.23 69.08 69.48 67.17 67.96 66.80 67.37 64.33 64.60 66.38 65.28 67.82 68.01 67.77 67.61 66.96 67.01 66.82 65.65 63.91 62.81 62.34 61.75 61.38 61.12 60.96 61.07 61.07
71.02 68.49 69.90 69.58 69.87 70.56 70.89 71.15 70.25 69.19 68.85 68.90 69.06 68.80 68.70 68.60 68.32 67.89 67.76 66.39 66.20 66.80 66.17 64.33 63.51 64.86 65.31 65.95 66.64 67.22 66.64 67.79 65.89 65.24 62.85 62.41 62.01 61.43 60.54 59.87 59.43 59.04 58.62
70.45 69.56 68.18 69.92 70.65 70.84 70.48 70.01 70.14 69.78 69.47 69.27 69.65 69.65 69.38 68.74 68.22 68.18 67.69 67.50 67.18 65.90 66.27 63.91 63.45 63.39 63.55 64.78 65.09 63.13 62.69 64.27 63.67 65.02 65.02 63.28 62.91 62.81 61.66 60.10 59.91 59.73 57.87
70.33 69.66 68.69 69.09 69.97 69.65 69.04 70.12 70.17 69.15 69.25 69.58 69.58 69.61 69.85 69.14 67.39 66.62 66.43 67.32 67.73 65.08 63.75 62.68 61.64 62.47 62.06 63.58 63.73 63.48 61.68 62.78 64.20 64.87 63.21 63.31 63.57 64.12 64.41 62.43 62.86 62.35 59.87
70.85 70.26 69.52 69.50 69.71 68.70 64.14 64.44 68.38 69.02 69.17 69.54 69.12 69.57 69.93 67.87 66.21 63.89 63.39 63.46 63.89 63.99 63.40 61.76 61.42 62.54 63.22 62.95 63.05 61.90 61.11 59.80 58.82 63.66 62.75 61.67 63.89 63.12 63.84 64.24 62.23 61.03 59.75
69.24 70.58 69.81 69.50 69.31 69.77 61.86 62.43 64.40 68.71 68.90 69.61 69.65 70.04 68.57 67.04 66.76 67.63 64.51 62.62 62.09 61.42 61.52 63.36 62.04 62.54 62.14 63.09 63.05 61.45 60.53 59.91 59.10 61.27 62.44 59.96 62.86 61.70 63.13 64.26 60.92 60.03 58.76
69.77 69.43 69.79 70.06 70.07 69.42 61.64 60.84 63.37 68.10 69.10 69.08 66.16 65.46 65.11 65.00 67.76 66.57 65.24 65.31 65.03 65.40 65.51 64.65 64.47 63.89 63.49 63.49 61.95 60.64 60.20 59.15 60.06 61.16 63.47 58.29 61.19 60.67 62.91 63.83 60.70 59.61 58.02
69.01 69.38 69.54 69.68 69.97 70.15 59.83 59.26 62.41 67.85 67.30 64.73 64.55 64.71 64.76 64.15 62.84 59.91 63.87 63.50 64.01 64.17 62.75 59.18 58.14 57.41 57.20 57.69 58.31 59.17 57.80 56.62 56.93 59.12 62.02 59.59 59.48 60.24 61.58 60.80 60.76 59.04 57.29
68.48 68.69 69.10 70.75 66.41 70.34 57.41 57.01 62.43 67.34 65.75 64.21 63.60 63.67 60.12 59.36 59.32 56.35 61.95 62.74 61.76 62.64 63.10 62.56 61.70 60.59 59.55 61.48 59.17 60.47 58.53 57.47 58.08 57.30 60.67 58.59 58.32 57.00 52.68 56.18 58.85 60.99 60.59

GFSMA_sfc_wetblb_030.txt.gz
Wetbulb
74.99 76.18 75.51 77.18 77.14 76.21 76.21 73.99 73.35 76.92 74.96 75.94 75.87 75.53 74.96 74.93 74.40 74.04 74.27 73.52 76.73 77.02 76.83 76.52 76.79 76.19 75.31 75.09 75.58 75.23 74.45 73.20 73.26 74.36 74.35 74.48 74.73 74.51 74.19 73.85 73.51 73.84 73.65
74.51 74.94 78.41 77.26 74.29 75.21 75.09 77.27 77.15 76.80 76.99 76.06 75.79 76.06 74.79 75.59 74.90 74.02 75.09 75.30 76.85 76.86 77.29 77.21 76.86 76.95 76.39 75.80 74.93 75.90 75.26 74.86 74.44 73.89 74.42 74.46 74.56 74.70 74.50 74.04 74.02 73.82 74.42
79.07 79.53 77.87 77.61 75.04 75.48 78.28 75.19 75.68 74.79 75.34 75.50 73.18 75.71 74.52 74.79 73.74 72.60 71.64 71.33 75.07 77.07 77.27 77.10 76.70 77.13 76.58 75.90 75.79 75.54 76.20 75.75 75.49 75.26 74.40 74.79 74.95 75.08 74.98 74.57 74.04 74.45 74.58
80.20 79.72 78.35 77.09 78.01 78.18 74.51 74.48 75.88 73.56 72.46 71.45 70.07 71.63 71.55 71.05 71.17 71.21 71.24 72.10 71.93 72.87 75.84 76.55 77.20 76.61 76.66 75.31 75.71 75.49 75.90 75.89 76.03 75.73 74.86 75.08 75.38 75.41 75.03 74.88 74.91 74.86 74.69
79.08 77.61 77.06 75.94 77.07 75.34 76.14 74.40 75.10 72.61 71.09 69.55 68.98 69.62 71.13 70.10 70.93 70.42 71.56 72.01 72.15 71.79 72.96 75.99 76.35 76.39 76.12 75.57 75.94 76.05 75.80 75.82 75.03 75.33 75.86 75.61 74.96 75.19 75.26 75.08 74.96 74.91 74.91
77.42 76.48 77.26 76.98 76.00 76.36 75.34 74.44 71.96 73.48 70.91 70.67 68.96 68.46 69.50 70.32 71.33 71.70 69.68 71.38 71.78 71.73 72.51 73.31 73.86 73.97 74.74 74.44 75.78 76.42 75.48 75.57 75.73 75.50 75.28 75.16 75.16 75.03 75.41 75.18 74.92 74.92 74.87
78.24 77.99 78.41 75.84 74.98 76.07 75.37 73.72 73.73 71.00 70.24 72.56 69.31 68.94 70.41 70.25 70.03 70.24 69.10 70.01 70.67 71.08 72.08 73.38 73.03 73.32 73.85 74.23 74.28 74.68 74.45 73.78 74.06 74.52 74.86 74.88 74.78 74.70 74.84 74.76 74.77 74.86 74.86
77.79 78.54 78.27 75.89 75.19 73.51 74.40 74.67 72.82 70.45 69.02 72.16 67.87 66.95 63.85 67.48 67.10 68.43 69.94 68.42 68.04 69.57 71.28 71.63 71.81 71.93 73.52 73.78 72.17 72.08 72.15 72.59 72.89 73.59 73.71 73.34 73.71 73.98 74.28 74.57 74.41 74.69 74.79
78.27 78.06 77.20 77.17 75.77 75.54 74.44 74.39 73.04 71.32 68.30 71.15 70.30 67.65 64.54 62.35 65.76 69.26 69.91 67.68 67.86 67.73 69.15 69.15 68.24 68.65 70.44 72.02 70.40 68.35 68.10 68.70 69.37 69.79 70.10 70.48 71.42 72.38 73.03 73.30 73.52 73.83 74.06
77.78 77.67 78.52 77.29 75.60 76.14 74.49 73.54 72.98 71.34 70.52 67.52 70.47 70.45 69.42 67.74 64.65 62.47 67.26 67.59 67.13 66.64 66.18 67.50 66.55 67.05 67.19 67.91 67.19 66.51 66.02 65.89 65.90 66.03 66.72 66.97 67.25 68.66 70.21 71.26 72.71 73.69 74.00
77.37 77.55 77.05 77.45 77.44 75.48 74.08 72.43 72.71 71.67 71.33 69.57 69.28 69.04 69.39 68.10 68.28 64.15 62.14 63.33 66.70 66.56 66.84 65.98 66.44 67.15 66.77 67.99 67.35 65.45 65.48 64.66 64.22 64.35 64.40 64.87 65.97 66.58 67.07 67.95 69.50 71.53 73.41
75.93 78.08 76.51 77.52 76.97 75.29 74.02 71.73 71.98 71.95 71.06 70.97 69.96 69.64 67.55 66.58 64.90 65.96 63.74 63.54 63.42 65.73 66.91 66.88 66.12 66.80 66.83 67.23 67.80 67.23 66.59 65.65 64.64 63.86 63.80 64.09 64.59 65.36 65.85 66.49 66.72 67.36 69.19
73.52 75.48 77.40 76.58 75.72 75.34 74.54 73.59 71.63 72.37 71.04 70.45 71.78 68.93 68.64 68.14 68.35 66.79 64.95 63.31 63.24 65.08 65.74 66.45 66.70 67.24 67.26 66.56 65.57 68.06 68.07 67.02 66.61 65.45 65.12 64.49 64.50 64.76 64.80 65.36 65.66 65.99 66.33
73.84 75.21 75.99 76.44 75.53 74.50 74.40 73.17 71.45 70.41 70.92 70.45 69.72 70.27 68.62 68.35 68.40 68.56 66.54 64.09 60.83 61.82 64.19 65.64 67.59 67.25 67.53 67.48 67.24 68.39 66.22 67.33 66.91 65.62 64.75 64.76 64.87 65.00 64.92 64.98 65.12 65.31 65.33
77.18 75.19 75.21 75.62 74.91 74.08 73.17 73.39 71.36 70.58 71.29 71.68 70.67 70.84 69.96 69.03 69.01 68.50 68.01 66.00 64.92 59.96 60.47 63.79 63.27 66.71 67.97 66.54 68.79 66.88 67.22 69.00 67.65 66.41 64.89 64.73 64.81 65.05 65.26 65.38 65.45 65.57 65.20
76.51 75.54 74.79 74.80 74.13 74.04 73.60 73.59 71.34 72.64 71.48 71.34 70.47 70.18 69.88 69.13 68.88 68.91 66.82 67.28 65.58 63.90 60.75 63.78 62.80 65.74 69.01 68.43 68.83 67.60 68.01 68.20 67.66 66.10 65.01 64.37 64.80 65.26 64.91 64.98 64.58 64.63 64.78
76.79 74.84 74.23 73.85 73.73 73.42 73.23 72.35 71.75 71.49 70.64 70.41 69.64 69.54 68.47 69.99 68.21 68.11 68.80 67.93 66.97 65.56 62.58 63.72 65.86 66.56 67.99 67.83 68.06 68.81 68.91 67.02 67.03 66.23 65.46 65.11 64.59 64.59 64.50 64.35 64.24 64.22 64.24
76.78 74.68 74.37 73.79 73.17 72.75 72.64 71.98 70.40 69.76 70.31 69.87 69.78 70.07 69.39 68.99 69.41 69.83 68.55 68.04 67.14 67.26 64.57 62.95 64.90 65.77 65.98 67.88 68.70 67.78 67.89 66.63 66.15 66.58 65.55 65.00 64.19 63.52 63.04 62.71 62.65 62.34 62.49
76.88 74.92 74.23 73.31 72.91 72.19 72.07 71.68 71.07 70.38 70.23 68.11 70.04 69.43 69.09 69.12 68.79 67.86 68.28 67.70 67.10 66.57 65.96 64.09 63.81 65.53 64.86 66.05 65.45 66.47 66.30 66.71 66.81 66.47 64.26 63.28 63.26 62.97 62.10 61.24 60.66 60.05 59.70
76.87 74.65 73.80 73.31 72.76 72.01 72.01 71.40 71.36 70.77 69.99 69.67 70.01 69.69 69.47 69.25 68.83 68.35 67.91 66.20 66.26 65.84 64.95 63.68 62.97 62.95 64.23 65.38 64.71 62.73 61.96 63.89 63.47 65.29 65.46 64.05 63.55 63.35 62.53 61.06 60.53 60.33 58.46
77.01 75.39 73.73 73.08 72.21 70.92 71.59 70.97 71.18 70.33 69.54 69.28 69.47 69.81 69.71 70.03 68.64 67.08 67.78 67.63 65.55 64.30 62.71 62.20 60.49 60.53 60.86 60.81 59.80 61.20 60.92 62.06 62.60 64.33 61.46 61.07 61.46 61.59 61.68 62.18 63.38 63.18 60.86
76.40 74.93 72.99 71.97 71.31 70.16 66.10 66.10 70.04 69.91 69.77 69.10 68.54 69.94 70.28 68.96 66.62 65.18 64.98 64.42 64.80 63.26 62.02 61.20 61.08 59.93 60.30 61.86 62.21 61.33 60.60 59.23 57.25 62.41 61.06 58.97 60.72 59.65 60.15 61.59 62.97 62.22 60.41
75.70 73.64 72.45 71.51 70.11 70.30 63.62 63.68 66.56 69.83 69.18 68.84 69.39 69.49 69.42 68.66 67.76 66.81 64.29 63.83 63.82 63.46 63.30 63.18 60.02 59.85 60.95 62.22 62.65 61.12 60.54 59.86 58.56 59.75 58.77 56.28 59.28 58.70 61.37 62.58 61.49 60.84 59.51
74.29 72.30 71.71 70.87 70.16 71.15 61.43 61.72 64.61 67.62 68.01 69.74 68.70 69.86 69.24 69.37 67.84 66.92 65.42 65.13 64.95 65.29 64.25 63.27 62.39 62.00 62.89 63.22 62.78 61.12 59.37 58.26 58.78 59.40 60.41 55.90 58.85 58.86 61.30 62.02 61.59 60.72 58.72
72.94 71.68 71.19 70.67 70.52 70.97 60.70 59.55 62.40 66.48 66.09 67.32 68.74 69.96 69.56 69.29 66.14 61.75 64.89 64.16 64.14 63.50 63.23 61.68 61.90 61.70 60.42 59.55 59.53 59.25 57.04 56.00 55.25 56.76 60.07 58.01 58.06 58.11 57.86 57.80 58.84 60.08 57.93
72.97 71.06 69.96 70.45 67.76 69.92 59.13 57.90 61.27 66.27 65.33 66.94 69.37 68.99 62.75 66.52 60.11 58.83 63.41 63.81 62.09 62.56 63.89 63.79 63.81 62.42 60.43 60.41 59.81 59.40 58.73 56.24 56.01 55.89 58.97 57.14 54.46 54.33 51.13 55.47 57.73 59.73 59.58

GFSMA_sfc_wetblb_033.txt.gz
Wetbulb
72.21 73.23 72.86 73.74 72.42 74.00 72.97 70.36 72.02 72.44 72.66 72.76 72.23 72.48 71.38 71.55 71.31 72.23 71.66 75.99 76.41 76.21 76.76 76.79 76.55 75.29 75.48 75.45 74.90 74.39 73.45 73.81 74.08 74.48 74.56 74.00 73.31 73.28 73.88 73.42 73.31 73.33 73.19
72.39 73.43 73.23 73.41 72.59 72.49 73.33 73.10 72.44 72.06 73.49 72.76 72.93 72.54 71.35 71.81 71.96 73.06 72.36 73.55 75.83 76.00 76.18 76.28 76.97 76.70 75.78 75.54 75.37 75.69 75.06 73.95 73.48 73.65 74.44 74.78 74.73 74.60 74.07 73.66 73.25 73.07 74.06
73.03 72.68 72.44 72.31 73.38 73.03 73.75 72.69 72.35 72.19 71.94 71.82 68.49 71.95 71.74 70.85 71.75 72.62 72.78 72.71 73.89 76.35 76.58 77.15 76.78 76.86 77.12 76.24 75.68 75.97 76.20 76.01 75.28 74.62 74.51 74.26 74.34 74.62 74.07 74.70 74.12 74.32 74.62
74.62 73.14 72.91 72.56 74.04 73.15 71.20 71.59 71.23 69.26 68.83 65.78 63.42 64.38 66.65 65.78 66.79 66.59 66.80 67.43 71.36 73.15 75.76 76.18 75.70 76.32 76.61 76.30 75.33 76.28 76.02 75.92 75.90 75.50 74.92 74.52 74.80 75.20 75.25 75.17 75.00 74.55 74.45
75.45 74.03 73.55 73.01 74.40 73.28 73.16 71.73 71.03 68.82 64.27 63.30 64.91 64.50 64.73 65.06 66.17 68.82 67.76 68.26 69.06 71.40 72.13 74.88 74.50 75.53 75.41 75.25 75.21 75.14 75.34 75.67 75.60 75.65 75.60 75.48 75.35 75.35 75.35 75.07 74.85 74.64 74.84
75.72 73.77 73.92 73.65 73.00 72.39 70.65 69.81 68.95 69.48 65.53 64.88 66.40 65.14 64.66 65.23 65.29 67.36 67.55 69.50 69.49 70.26 71.03 72.85 71.41 72.14 75.19 75.68 75.86 75.62 75.00 75.52 75.72 75.20 74.85 75.20 75.39 75.12 74.92 74.86 74.93 74.96 74.83
74.24 73.68 73.48 73.39 73.60 72.20 70.32 71.03 66.71 63.82 63.52 65.93 62.52 62.72 65.17 65.04 64.91 67.95 65.97 65.17 66.48 69.55 71.36 70.76 70.77 72.06 72.56 73.66 74.30 74.10 74.20 74.29 74.86 75.15 75.27 74.80 74.79 74.91 74.90 74.67 74.63 74.84 74.75
74.39 74.16 73.12 72.56 71.52 70.85 70.71 67.75 65.45 64.08 63.64 65.60 60.76 60.69 59.65 63.07 65.58 66.36 64.08 64.02 63.86 68.18 68.55 68.03 67.81 70.18 70.94 70.77 70.71 72.41 72.66 73.25 73.23 73.05 73.38 73.63 74.35 74.23 73.95 73.51 73.95 74.35 74.56
74.94 74.33 74.67 72.63 72.22 71.40 69.68 67.48 66.37 64.14 61.67 63.93 63.02 61.80 59.07 57.87 62.92 66.19 64.41 63.01 63.58 63.70 65.42 64.45 64.43 65.93 70.42 68.38 67.55 67.27 68.79 69.33 69.55 69.80 69.94 70.10 70.63 71.46 72.39 72.93 73.12 73.34 73.55
74.65 74.45 73.60 71.99 71.79 70.53 68.75 66.21 66.40 64.73 62.95 59.86 64.51 65.37 63.10 61.71 59.48 58.13 63.33 62.32 61.98 62.20 63.63 62.98 62.46 63.57 66.80 65.58 66.00 66.94 66.87 66.62 66.23 66.08 66.39 66.78 67.06 67.55 68.52 70.12 71.42 72.31 73.22
74.18 74.01 73.88 72.93 71.30 70.96 68.31 66.73 64.70 65.29 64.86 64.00 64.02 63.82 63.11 62.81 61.59 58.71 57.21 59.72 64.30 62.65 61.69 62.80 63.16 62.54 64.31 63.82 60.99 64.86 66.68 66.10 65.68 65.04 64.37 64.59 65.42 66.14 66.69 67.23 68.05 69.48 71.03
71.49 73.47 73.23 72.67 71.40 68.40 66.61 66.70 67.29 65.29 65.28 64.59 63.29 63.00 62.18 60.70 60.38 60.37 57.54 57.15 59.15 61.11 63.64 62.38 62.40 62.78 62.52 65.42 65.53 66.94 67.65 67.03 66.26 65.49 64.74 64.19 64.27 64.82 65.46 66.19 66.64 67.12 67.38
69.25 71.68 71.77 72.49 71.28 70.28 68.93 67.67 65.76 65.11 65.94 65.26 65.65 63.31 64.06 62.44 62.29 60.23 57.94 57.17 57.43 59.04 61.46 63.95 61.91 62.69 63.34 63.43 64.17 67.08 68.32 66.84 66.11 65.22 64.84 65.06 65.16 65.10 65.08 65.15 65.51 65.81 66.03
70.22 70.91 73.14 72.78 71.90 70.00 68.78 68.25 66.57 66.97 66.84 65.04 64.25 63.31 63.96 63.72 63.22 62.61 59.99 58.62 55.81 56.75 58.15 60.73 63.43 63.43 63.55 62.23 64.61 68.61 64.57 66.80 66.47 65.96 64.83 65.09 65.45 66.17 66.23 65.73 65.56 65.69 65.61
71.37 71.14 73.25 72.91 71.78 69.90 69.76 68.43 66.85 66.08 66.46 65.77 64.82 65.34 63.49 64.01 63.76 64.33 63.07 60.61 58.53 55.11 55.78 58.54 59.07 63.28 64.89 63.87 64.41 64.48 61.98 67.42 66.72 66.61 65.04 64.50 64.88 65.67 66.19 66.40 66.06 66.01 66.17
72.34 71.34 73.30 72.66 71.45 70.34 69.61 68.34 66.94 67.74 66.43 66.81 65.77 64.98 64.63 64.59 64.47 63.68 63.92 62.80 61.05 58.18 54.79 59.25 59.24 61.60 63.98 64.73 68.16 63.66 64.01 67.25 67.27 66.11 65.24 64.36 64.44 64.85 65.37 65.77 65.59 65.14 65.23
72.29 71.99 72.83 72.25 71.18 70.64 69.83 68.64 67.07 66.69 67.39 65.63 66.40 64.81 65.28 64.44 63.29 63.05 64.17 62.81 61.67 61.17 58.54 58.68 60.77 62.26 63.45 63.32 64.70 65.35 65.57 64.13 63.57 65.77 65.47 64.69 63.93 64.15 64.76 64.96 64.98 64.74 64.74
72.81 72.44 72.02 71.90 71.03 70.56 69.69 68.97 67.66 67.39 66.47 66.06 65.29 64.64 64.06 65.54 62.99 63.58 62.83 62.58 62.32 62.36 60.53 58.23 60.17 61.09 61.62 62.33 63.23 63.54 65.17 66.27 63.73 65.44 65.44 64.66 64.04 63.66 63.44 63.36 63.14 62.99 62.92
73.12 72.22 71.72 71.05 70.93 70.63 69.96 69.41 68.22 66.27 66.95 66.79 66.68 65.52 64.64 64.53 64.16 64.40 64.40 63.07 63.26 63.36 62.01 60.16 59.50 61.30 61.43 61.40 61.22 62.70 62.77 63.10 64.68 65.91 63.76 63.41 62.94 62.50 61.89 61.53 61.21 60.51 59.97
73.70 71.84 71.50 71.01 70.68 70.54 69.90 69.57 68.56 67.35 66.55 66.44 67.17 66.86 65.62 65.12 64.26 64.25 63.29 63.14 63.13 61.99 61.37 60.01 59.14 59.26 59.69 59.97 60.39 58.07 57.84 59.54 60.60 63.70 64.35 63.22 62.58 62.90 62.83 61.43 60.88 60.55 58.50
74.67 72.32 71.17 71.12 70.81 70.42 69.88 68.89 68.53 67.71 66.97 66.23 66.97 67.90 67.31 67.56 67.85 65.78 64.28 62.81 62.59 61.07 59.42 58.36 57.56 56.89 57.06 57.60 57.29 57.68 57.55 58.09 59.06 60.07 59.16 58.86 57.94 57.41 57.83 59.44 61.92 63.33 60.86
75.17 73.19 71.22 70.68 69.99 70.79 66.24 67.09 68.63 68.30 67.59 67.01 66.20 66.45 65.98 68.37 67.80 66.65 65.68 65.08 63.10 59.79 57.95 57.91 57.24 57.14 57.45 59.09 60.23 58.41 57.66 55.67 54.53 59.13 57.18 57.20 56.27 56.80 57.55 56.86 60.71 60.99 60.03
75.20 73.38 71.74 70.61 69.01 69.16 64.29 65.01 67.03 68.18 67.68 67.17 66.76 66.60 66.87 66.91 64.99 63.54 63.57 63.49 63.29 62.94 62.14 59.27 57.60 57.42 57.70 59.01 59.87 58.95 58.45 58.06 57.25 58.64 56.03 54.21 55.68 55.38 57.71 59.34 60.49 60.40 59.48
74.02 72.66 71.20 70.32 68.80 68.65 63.13 61.68 64.58 67.34 66.23 66.44 67.09 66.45 66.03 65.54 65.24 63.40 62.71 61.18 61.71 62.14 61.81 62.16 60.67 60.39 59.72 60.72 60.10 59.61 58.22 56.08 55.25 56.04 56.12 53.02 55.47 54.49 56.88 57.90 60.61 60.42 58.61
73.72 71.83 70.19 69.10 68.12 67.76 61.98 60.15 61.48 65.32 64.80 64.80 66.32 67.53 67.19 65.26 63.83 62.66 62.49 61.11 60.30 60.92 62.53 61.68 61.61 61.53 61.09 61.12 61.27 56.50 54.42 51.82 51.40 52.24 54.56 54.57 54.44 53.60 52.73 52.16 53.65 58.02 56.90
72.26 70.74 69.59 69.09 66.35 68.16 60.08 58.81 60.35 64.99 64.14 64.37 65.14 66.23 63.16 64.31 60.73 59.90 61.67 59.85 59.03 59.43 59.96 60.45 60.36 59.08 58.94 58.09 59.84 56.90 56.95 52.27 52.84 51.44 54.64 53.57 52.40 48.80 48.31 48.60 50.73 54.09 56.49

GFSMA_sfc_wetblb_036.txt.gz
Wetbulb
71.93 71.86 71.92 72.27 72.22 72.62 71.28 70.19 70.68 71.16 72.26 72.07 72.02 71.40 69.69 70.08 68.28 71.70 70.53 75.21 76.07 76.90 76.16 76.12 75.19 74.94 74.64 74.82 74.38 74.00 74.24 74.14 74.23 74.18 74.06 73.76 73.13 72.94 72.90 72.65 72.78 72.78 72.97
71.49 72.37 72.36 72.04 71.08 72.78 71.70 72.06 71.72 71.66 71.95 71.89 71.25 71.72 70.10 70.51 70.11 71.50 71.52 72.13 76.52 76.75 76.74 76.78 76.37 75.63 75.49 75.45 75.13 74.63 74.07 73.51 73.95 74.53 74.95 74.92 74.34 73.31 73.85 73.98 73.35 72.89 72.86
71.37 71.56 71.17 71.24 71.93 72.34 72.52 71.44 71.33 70.31 68.75 67.07 64.49 69.93 70.54 70.54 71.61 71.28 71.46 71.22 73.02 76.34 75.89 76.55 76.70 76.83 76.15 75.88 75.48 75.71 75.80 75.43 74.54 73.88 74.67 74.45 74.15 74.27 74.14 74.37 73.72 73.34 74.08
72.83 72.04 71.05 70.95 72.92 71.68 70.83 70.31 70.16 68.11 66.57 63.88 61.82 62.95 65.25 68.09 68.06 70.56 71.31 70.80 71.36 72.68 74.88 75.55 75.39 75.73 76.26 75.96 75.35 74.92 75.15 75.25 74.88 75.02 74.67 74.02 73.54 73.65 74.40 74.60 74.45 74.33 74.08
73.62 72.40 71.84 71.81 72.86 72.13 70.99 70.38 70.03 66.77 62.99 62.10 64.75 63.15 63.02 63.80 64.88 67.18 66.28 67.79 67.58 71.17 71.16 74.60 74.95 75.20 75.12 74.47 75.14 74.88 74.99 74.41 74.93 75.38 75.38 74.78 74.63 74.65 74.90 75.02 74.89 74.52 74.49
74.83 72.65 72.55 72.82 72.28 72.63 70.37 69.20 67.49 66.30 63.55 63.60 64.29 64.07 63.43 64.33 63.89 66.42 67.23 70.16 70.75 70.59 70.95 71.82 71.80 71.38 74.87 75.11 75.79 75.54 75.00 75.28 75.37 75.33 74.80 75.00 75.17 74.84 74.82 74.43 74.15 74.60 74.60
74.15 73.18 71.66 72.54 71.47 70.25 70.41 68.83 65.27 62.21 61.50 63.90 60.21 59.55 62.83 63.91 63.49 65.51 64.64 66.34 68.64 69.69 69.63 69.57 70.40 70.73 72.97 74.41 74.03 73.49 74.50 74.74 74.77 74.81 74.78 74.28 73.61 73.78 73.94 74.17 74.27 74.32 74.60
73.43 73.15 71.59 71.67 71.20 71.33 69.18 66.09 63.23 62.13 62.59 63.86 59.17 59.42 59.18 61.11 64.25 63.77 63.42 64.23 66.72 68.60 68.52 69.04 69.09 70.11 69.62 69.89 71.21 73.04 73.29 73.58 73.72 73.43 73.26 73.12 73.64 73.73 73.51 73.45 73.52 73.89 74.06
74.14 73.03 72.53 71.53 70.59 69.01 68.16 65.58 64.11 61.82 59.98 61.41 61.58 60.66 58.04 56.80 61.37 63.85 63.52 62.83 64.36 64.13 63.84 64.03 67.20 69.72 68.51 67.65 67.19 68.03 70.02 70.42 70.10 69.87 69.67 69.83 70.05 70.46 71.43 72.30 72.71 72.89 72.89
73.56 73.74 72.76 71.26 70.78 69.92 67.17 65.88 65.90 63.97 60.29 59.28 62.72 64.00 61.50 59.73 58.51 58.34 61.38 61.31 60.82 63.25 61.90 61.52 63.01 69.21 67.70 65.39 65.47 66.60 67.32 67.45 66.79 66.02 65.90 66.24 66.65 67.14 67.42 68.41 70.05 71.56 72.11
73.22 73.58 72.45 70.45 70.33 69.10 67.02 65.81 63.22 64.04 62.89 61.73 62.48 62.69 60.78 61.71 58.53 58.09 56.60 59.05 61.24 60.65 61.30 61.13 61.15 65.96 66.41 63.35 61.74 65.17 67.47 67.90 67.08 65.59 64.40 63.93 64.37 65.19 65.96 66.70 67.09 67.69 68.76
72.16 72.54 72.98 70.57 69.82 68.44 67.13 65.23 63.42 63.48 64.52 63.37 61.61 62.06 60.47 59.76 59.80 59.77 56.12 56.21 57.41 59.50 60.93 60.20 60.83 61.04 63.37 62.33 63.18 66.30 68.49 67.69 67.09 66.58 65.97 65.06 64.27 64.56 64.60 65.35 66.05 66.58 66.95
69.70 71.45 71.51 70.79 69.15 66.97 65.81 65.78 64.81 63.86 63.07 62.59 62.72 61.75 62.28 61.21 60.43 57.90 56.32 55.69 55.73 57.28 59.67 61.79 61.14 60.79 62.43 63.35 63.64 67.01 68.69 67.13 66.31 65.46 65.13 65.57 66.15 65.70 65.61 65.40 65.44 65.75 65.97
70.57 71.95 71.11 71.29 68.70 67.57 66.21 65.73 64.32 64.02 64.17 63.46 63.40 61.96 62.03 61.91 61.99 60.67 57.70 56.66 54.08 54.97 56.80 58.79 61.21 61.99 61.50 61.60 64.58 68.83 64.10 66.84 66.42 65.40 64.67 64.73 65.28 66.36 67.00 66.87 66.60 66.44 66.04
69.43 71.37 71.09 71.08 69.48 68.53 67.08 66.14 64.90 64.57 65.23 64.08 63.16 62.11 62.48 61.62 62.60 62.36 61.28 58.45 55.98 53.18 53.44 57.36 57.47 60.82 62.24 62.40 63.84 65.36 62.10 65.16 66.56 65.87 65.11 64.92 65.13 65.75 66.27 66.74 66.86 66.53 66.57
70.29 69.85 70.94 70.93 69.96 68.73 67.68 66.83 65.21 64.72 64.82 64.53 64.52 63.58 62.50 62.53 62.14 62.11 62.37 60.94 58.74 56.35 53.74 57.10 58.40 59.79 62.63 63.21 64.08 64.61 62.77 65.25 66.08 65.87 65.09 64.72 64.68 65.22 65.68 65.97 65.99 65.94 65.96
70.73 69.59 71.52 71.20 70.42 69.01 68.25 66.67 65.49 65.92 64.58 64.53 65.07 63.99 63.24 63.15 62.67 61.46 62.42 61.23 60.49 58.95 56.49 57.73 59.22 60.46 61.91 62.52 63.08 64.29 63.62 63.02 63.16 65.28 65.64 64.98 64.17 64.26 64.74 65.09 65.19 65.30 65.33
71.51 70.71 70.64 71.69 70.74 69.85 68.52 67.59 65.76 66.35 65.78 64.35 64.23 63.98 63.48 65.00 62.33 61.16 61.80 60.81 60.35 60.65 59.16 57.45 58.09 59.48 60.62 61.07 61.09 61.41 62.54 65.49 63.55 64.81 64.59 64.37 63.86 63.50 63.19 63.06 62.88 62.89 63.31
71.38 70.95 70.79 71.15 70.66 70.26 68.86 68.25 67.20 65.87 65.43 65.87 65.05 63.98 63.81 62.86 61.60 61.27 61.48 60.81 61.54 62.08 60.54 58.83 58.32 59.66 60.16 60.20 59.98 61.01 61.50 60.76 62.29 65.26 63.39 63.14 62.68 62.20 61.68 60.70 60.12 59.88 59.43
72.02 71.01 70.88 70.99 70.72 70.35 69.66 68.57 67.83 66.43 65.98 65.81 65.74 65.38 65.30 64.38 62.74 63.23 63.72 62.39 61.81 61.09 60.22 59.35 58.67 58.31 58.57 59.10 59.29 57.37 57.68 58.18 58.51 62.29 63.40 62.87 62.31 61.81 61.21 60.29 60.32 60.49 58.58
73.41 71.88 70.74 70.13 70.09 69.90 69.93 68.81 68.34 67.04 66.06 65.14 65.49 66.42 66.95 66.65 66.08 64.81 64.75 62.56 61.55 60.83 60.20 58.32 57.02 56.10 55.98 56.27 56.09 57.50 58.39 59.02 59.30 59.36 58.04 57.76 57.34 56.76 57.99 58.99 60.32 61.37 59.85
73.68 71.81 70.76 69.99 69.08 70.26 66.72 66.41 68.51 67.89 66.89 65.95 65.10 65.07 66.78 67.60 66.75 65.58 65.41 64.52 64.08 61.79 59.75 58.00 57.57 55.64 55.92 56.56 57.45 57.89 57.88 57.41 55.76 59.49 57.60 56.00 56.32 55.66 56.99 56.76 59.81 60.07 59.38
74.00 71.66 70.16 70.00 69.69 69.93 64.37 64.96 66.90 68.27 67.08 66.70 65.43 64.71 65.62 66.91 66.38 66.42 64.65 63.69 63.34 62.88 61.83 58.86 57.05 56.83 56.47 57.07 57.47 55.86 56.40 56.06 55.49 58.44 54.87 52.47 53.77 53.48 55.84 57.93 59.39 59.51 58.87
73.39 72.17 70.37 70.20 69.85 70.00 63.09 62.77 65.45 68.76 67.10 66.20 65.96 65.35 66.01 65.96 64.82 64.46 63.87 63.18 62.56 62.02 62.15 62.16 59.97 59.79 59.14 59.30 58.55 58.31 57.51 56.20 54.82 55.08 54.39 51.49 53.51 53.60 55.78 56.15 59.21 59.72 58.33
73.60 73.22 71.41 70.59 69.90 69.99 60.95 60.91 63.33 67.62 64.71 64.65 65.46 66.18 66.65 64.81 62.66 61.96 62.85 62.09 61.68 61.33 62.42 60.83 60.71 60.60 60.42 60.57 60.80 58.24 57.82 52.21 51.55 51.53 53.01 52.69 53.08 52.79 53.19 52.47 52.96 56.59 56.01
73.76 72.71 71.49 71.23 68.01 69.35 60.12 58.27 60.75 64.46 64.88 65.21 63.52 65.80 62.67 64.72 59.73 59.29 64.17 62.78 61.74 61.53 60.20 60.51 60.59 59.10 59.36 59.28 59.71 57.80 55.84 52.29 51.57 50.59 53.69 52.66 51.27 49.88 48.15 47.14 47.97 50.17 52.19

GFSMA_sfc_wetblb_042.txt.gz
Wetbulb
71.90 72.43 72.86 72.81 72.52 73.22 73.78 72.94 72.17 72.54 72.95 72.68 72.74 72.69 70.59 70.61 70.10 70.08 70.64 74.51 75.14 75.16 74.82 75.06 74.79 74.83 74.08 74.50 74.25 74.52 73.71 73.41 73.24 72.62 73.56 73.23 73.25 73.06 72.51 72.00 72.57 72.30 72.06
72.22 72.16 72.56 72.66 72.54 72.87 73.75 72.93 73.13 72.99 72.15 71.84 71.40 72.66 71.20 70.29 70.44 70.39 71.86 71.37 74.66 75.13 75.03 74.37 74.53 74.63 74.69 73.95 74.50 74.39 74.23 73.58 72.94 73.51 73.91 74.21 73.90 72.88 72.42 72.45 72.48 72.59 72.86
72.62 73.12 72.61 72.32 72.40 72.55 73.19 73.01 72.54 71.77 68.50 66.49 66.55 70.43 71.84 71.82 71.93 70.92 71.84 71.86 72.07 75.05 74.96 75.92 74.88 75.14 74.90 74.39 74.47 74.65 74.73 74.73 74.37 74.69 74.82 74.54 73.79 73.49 73.17 72.95 73.42 73.82 73.20
73.10 72.49 72.29 72.08 72.75 72.91 72.99 71.99 71.46 69.93 66.60 65.62 66.53 65.35 66.26 70.84 71.71 71.69 71.86 72.08 72.08 72.72 73.97 74.67 74.52 75.55 74.55 74.89 74.95 74.44 74.35 74.09 74.62 74.98 74.77 74.24 74.10 73.70 74.40 74.68 73.68 73.25 73.60
73.25 72.50 71.99 72.05 73.20 72.53 72.09 71.60 70.94 68.85 65.40 65.97 66.75 65.64 65.92 66.67 66.92 67.65 70.84 72.38 72.20 72.71 72.57 73.01 75.03 74.62 73.39 73.94 74.52 74.92 74.54 74.29 73.85 74.20 74.82 74.40 74.65 74.55 74.48 74.25 74.39 74.39 74.07
73.66 72.64 72.50 72.41 73.33 72.73 71.45 70.97 69.74 67.17 65.45 65.68 63.75 63.84 66.03 65.85 67.55 67.80 69.00 70.62 70.98 70.64 72.47 73.00 73.85 73.72 74.16 74.54 75.22 75.46 75.18 74.81 74.22 74.08 74.35 74.53 74.30 74.37 74.35 74.12 73.96 74.17 74.11
74.55 73.59 73.28 72.86 73.01 72.40 72.06 71.11 67.62 66.47 64.47 64.89 63.48 63.28 65.36 65.71 66.07 66.40 69.21 70.67 71.44 71.84 72.16 72.21 72.40 72.61 72.91 74.61 74.05 73.63 73.74 74.03 74.03 74.18 73.87 73.18 72.90 73.55 73.55 74.08 73.92 74.03 74.08
74.17 73.54 72.91 72.37 72.79 71.37 70.97 69.99 67.52 64.94 64.75 64.56 62.15 61.88 62.07 64.55 65.95 65.70 66.88 69.77 69.90 70.58 70.60 70.88 71.37 71.73 72.18 73.09 73.17 73.17 74.05 73.64 73.05 73.27 72.75 71.82 72.04 72.09 72.79 72.78 72.65 72.70 73.04
73.90 74.66 73.77 72.06 72.28 71.91 70.31 69.21 66.53 65.33 64.41 64.06 63.74 63.85 60.60 60.43 63.00 65.19 64.94 68.04 68.80 68.44 67.71 69.83 70.72 70.70 70.57 70.96 69.83 71.67 72.07 72.74 72.39 71.61 70.48 69.51 69.16 69.58 69.98 69.98 70.30 71.24 71.99
73.46 73.99 73.35 72.54 72.03 71.02 70.31 68.55 66.50 65.47 64.19 64.04 65.04 64.40 63.29 63.62 62.03 61.62 64.03 64.99 65.27 66.74 66.09 66.24 69.70 70.48 69.27 67.91 65.88 67.74 69.04 69.31 68.86 66.71 66.50 66.13 66.26 66.78 67.22 67.76 68.56 69.56 69.78
73.61 73.64 73.35 72.79 71.86 70.73 70.48 68.32 66.81 65.73 63.24 63.75 64.60 64.05 63.64 62.62 61.91 61.92 60.17 62.63 64.10 64.44 65.71 64.53 65.72 70.11 69.45 68.32 65.76 65.28 68.35 67.64 67.58 67.24 65.60 64.70 64.36 64.65 64.97 65.62 66.27 66.87 67.28
72.55 73.22 73.45 72.87 72.43 71.33 69.85 68.42 67.32 66.29 64.65 65.04 65.08 64.53 63.61 63.19 62.25 61.41 60.39 60.52 62.19 63.56 63.97 64.78 64.18 65.83 69.77 68.34 66.63 65.13 68.26 67.76 66.98 66.93 67.21 66.77 64.83 64.98 65.75 66.23 65.93 65.93 66.07
71.48 72.39 72.92 72.08 71.32 71.31 70.39 68.44 66.07 65.98 66.19 65.22 64.86 64.41 64.01 63.85 63.47 62.15 60.65 59.15 60.10 60.86 62.42 64.09 64.32 64.30 65.71 68.15 67.61 67.41 67.58 67.90 67.08 66.25 66.12 66.14 66.62 66.53 66.35 67.02 67.67 67.51 67.18
71.97 73.06 72.83 72.76 71.49 70.86 70.25 67.84 65.90 65.02 66.09 65.43 64.40 64.70 64.34 63.97 63.38 62.19 61.90 61.05 59.05 59.25 60.23 62.92 64.11 64.85 64.34 65.21 66.79 66.87 67.12 66.78 67.06 65.96 65.51 65.53 65.58 66.29 67.16 67.44 67.91 67.83 68.12
72.01 72.51 73.01 72.80 71.51 70.62 69.42 67.79 66.12 65.29 65.38 65.32 65.39 65.06 64.76 64.09 64.58 63.84 62.19 61.95 61.71 58.16 58.67 61.06 62.33 64.18 65.63 64.80 65.35 67.16 68.05 66.81 66.08 66.11 65.16 65.15 65.28 65.62 66.40 66.83 67.10 67.00 67.45
71.79 71.85 72.34 72.57 71.41 70.49 68.59 67.41 66.44 66.05 65.70 64.83 64.89 64.82 64.55 64.22 64.85 64.44 63.49 62.23 61.21 61.02 59.34 60.49 62.57 63.55 65.68 65.45 65.25 67.06 67.01 66.48 66.27 65.03 64.77 64.88 65.08 65.46 65.87 66.16 66.27 66.10 66.39
70.86 71.02 71.79 71.84 71.47 70.07 68.66 67.20 66.65 65.96 65.72 65.68 65.83 64.77 64.75 65.35 64.33 64.17 64.40 63.12 62.22 61.07 60.32 61.70 61.66 63.89 65.17 66.03 66.36 67.01 66.69 67.40 66.98 64.46 64.53 64.27 64.22 64.53 65.15 65.26 65.04 65.17 65.37
70.46 70.65 71.34 71.59 71.36 70.35 69.15 67.98 66.56 66.47 65.71 65.37 65.57 65.24 64.90 64.37 64.82 64.82 64.16 64.05 63.44 62.69 62.00 62.42 62.63 62.87 63.93 64.85 65.38 65.38 65.30 65.52 66.55 65.68 64.42 63.91 63.42 63.24 62.81 62.62 62.29 62.02 61.93
70.42 70.09 70.83 70.89 70.74 70.57 69.58 68.78 68.14 67.28 66.57 66.26 65.97 65.30 65.21 65.08 64.51 64.20 63.69 63.97 63.31 63.29 63.62 62.12 62.85 62.90 63.44 63.49 63.61 63.86 64.55 64.73 63.91 64.01 62.63 62.58 62.27 62.07 61.03 60.28 59.45 58.88 58.23
71.01 70.20 70.18 70.73 70.87 70.74 70.39 69.61 68.64 67.92 67.57 67.19 66.57 65.93 65.53 65.21 65.23 64.77 64.73 64.38 64.75 64.19 63.59 63.03 62.81 62.55 62.79 63.24 62.28 61.77 61.56 62.22 62.25 64.15 64.61 63.16 62.83 62.31 61.44 59.98 59.64 59.83 57.93
72.31 71.28 70.39 70.26 70.53 70.63 70.42 69.85 69.33 68.55 67.74 67.59 67.43 66.78 66.47 66.65 65.96 65.32 65.28 65.04 64.77 64.06 63.54 62.26 60.99 60.73 59.24 60.13 60.66 61.66 60.06 60.27 62.77 63.28 63.18 63.25 63.51 63.55 63.43 61.34 61.23 61.03 59.11
72.83 72.30 71.53 70.74 70.05 70.41 66.86 65.92 68.85 68.97 68.36 67.97 66.80 66.69 67.44 66.73 66.53 64.53 64.38 64.13 65.61 65.06 64.29 63.89 62.11 62.79 62.64 61.43 61.03 58.72 60.40 60.17 58.90 62.40 61.50 60.73 62.46 62.39 63.14 62.35 60.48 59.53 58.75
71.80 72.20 71.94 71.57 70.75 70.76 64.35 64.49 66.63 69.92 68.86 68.36 67.84 66.33 66.37 67.58 66.37 67.29 64.17 63.40 63.51 63.16 64.66 64.97 62.81 62.85 62.61 62.90 61.53 58.42 59.46 60.03 59.39 61.55 61.35 60.25 61.53 60.69 62.47 61.15 58.86 58.71 58.22
70.73 71.01 71.52 71.81 71.53 71.36 63.26 62.58 65.64 70.38 69.15 68.78 67.78 66.71 67.29 66.73 66.64 66.86 67.15 66.37 65.97 65.93 65.43 64.87 64.11 62.81 63.03 62.52 63.01 61.85 61.50 60.87 60.15 61.20 61.13 56.99 60.17 58.92 60.78 60.78 58.91 58.93 57.93
71.71 71.39 71.81 71.69 70.94 71.02 61.35 60.86 63.70 69.81 68.59 67.90 67.63 67.65 67.04 66.91 63.72 62.35 66.01 66.04 65.61 64.67 62.29 61.33 61.47 60.98 60.84 60.95 62.59 62.36 59.88 58.64 56.41 57.90 58.43 57.92 58.42 57.66 58.96 58.74 59.85 57.51 55.80
72.93 73.03 72.29 72.16 68.93 71.26 59.95 58.94 63.52 69.16 68.10 67.80 67.90 66.95 63.06 66.35 59.61 58.96 66.15 65.72 64.57 62.98 63.27 63.41 63.84 61.72 61.38 62.55 60.67 62.30 61.40 58.23 56.80 55.67 58.16 56.85 56.76 56.34 52.33 56.60 55.80 56.98 57.43

GFSMA_sfc_wetblb_045.txt.gz
Wetbulb
76.74 76.88 77.44 77.19 76.94 77.47 77.66 77.40 76.79 76.88 76.40 76.51 75.47 76.70 75.50 75.78 74.33 74.09 73.93 75.01 74.66 74.60 74.86 74.88 74.66 74.56 74.71 74.65 74.40 74.06 73.87 73.66 73.50 72.64 73.26 73.67 73.49 73.40 72.98 71.99 72.37 72.36 71.80
76.58 76.50 77.04 76.80 76.93 76.93 77.42 77.29 77.74 76.87 76.41 75.46 74.81 76.61 76.13 75.52 75.81 74.50 74.82 74.83 74.22 74.67 74.64 74.27 74.62 74.64 74.41 73.96 74.32 74.35 74.19 73.55 73.58 72.93 73.62 73.67 73.49 73.03 72.51 72.23 72.25 71.97 72.29
76.64 77.31 76.75 76.30 76.29 77.17 77.21 77.16 77.53 76.91 73.45 70.09 70.11 75.50 76.10 76.19 75.72 72.98 75.12 75.53 74.34 74.54 74.39 74.30 74.70 75.06 74.97 74.83 74.35 74.55 74.85 74.48 74.05 73.71 74.36 74.35 73.79 73.75 73.22 72.65 73.03 73.44 73.47
77.23 77.21 76.30 76.30 77.27 76.98 77.93 77.90 76.28 75.20 69.55 68.56 70.94 71.25 72.23 74.96 75.60 75.27 76.05 75.59 75.25 74.43 74.43 75.26 75.04 74.51 73.91 74.69 74.63 74.58 73.86 74.16 75.13 75.04 75.04 74.21 74.39 73.99 73.92 73.80 73.77 73.52 73.15
77.19 76.89 76.49 76.45 77.33 76.12 76.55 75.40 75.76 74.06 70.47 70.03 69.62 71.38 72.22 72.83 73.35 71.88 74.64 75.18 75.02 74.73 74.60 74.46 74.87 75.06 73.61 73.69 74.27 74.63 74.61 74.61 74.63 74.47 74.40 74.62 74.60 74.65 74.48 74.58 74.05 73.75 73.53
77.70 77.24 74.90 75.40 76.77 75.98 74.51 73.56 75.29 73.15 71.65 71.18 68.79 70.10 71.28 71.95 73.72 73.08 73.23 74.15 74.68 74.39 75.04 75.30 74.68 74.52 74.12 72.77 73.04 73.69 74.56 74.86 74.59 74.33 74.28 74.38 74.27 74.60 74.25 74.15 74.29 74.07 74.20
77.55 77.64 75.43 76.30 75.46 77.45 76.30 76.63 74.91 73.09 71.26 71.46 69.66 69.39 70.46 71.44 71.67 72.36 73.90 73.88 73.88 74.24 75.18 75.86 76.16 76.06 74.81 73.67 73.04 72.58 73.24 73.60 74.14 73.67 73.71 73.75 73.98 73.75 73.95 73.57 73.44 74.24 74.16
77.66 77.39 76.52 76.29 76.65 75.67 76.16 75.65 73.88 71.40 70.09 70.73 68.46 68.61 65.00 67.90 70.84 71.21 73.26 73.26 72.95 73.58 73.16 73.17 73.67 74.69 75.64 75.93 74.55 73.69 73.92 73.73 73.34 73.39 72.77 72.36 72.22 71.77 72.46 72.90 72.92 73.07 73.05
77.55 77.93 75.96 75.84 76.92 76.52 74.92 75.57 73.94 72.05 68.58 70.61 69.47 68.46 64.94 64.10 67.36 70.82 70.62 73.20 73.41 73.02 71.68 71.73 72.87 73.97 74.22 72.97 71.18 71.94 72.46 72.75 72.75 72.20 70.98 69.70 69.09 69.13 69.78 70.12 70.22 70.50 70.74
77.18 77.52 77.63 77.26 77.15 76.02 75.98 75.33 73.81 72.18 70.61 68.30 69.83 70.24 69.98 69.64 64.69 64.52 68.89 70.34 72.06 71.74 71.75 71.31 71.91 73.26 72.40 70.58 66.73 69.11 69.02 69.13 68.33 67.19 66.77 66.35 66.27 66.40 66.70 67.51 68.02 68.39 68.54
77.22 77.14 77.61 77.62 77.18 76.29 76.23 75.51 73.55 71.66 70.45 69.57 68.86 68.47 69.46 69.13 70.01 67.47 64.45 66.86 69.78 70.61 71.36 70.62 70.88 72.02 71.64 71.31 67.33 67.07 66.86 67.69 67.44 66.18 65.62 65.07 64.86 65.00 65.18 65.35 65.58 66.03 66.40
75.73 77.10 77.33 77.44 77.41 76.91 76.11 75.39 74.62 73.10 71.62 70.05 69.41 70.07 68.16 67.24 66.63 67.08 66.22 67.14 66.89 68.52 69.31 70.26 69.45 69.91 71.59 70.76 68.98 67.12 67.79 67.85 67.08 66.99 66.71 65.20 65.11 65.41 66.37 67.12 67.15 66.74 66.16
74.34 76.33 77.28 77.08 76.83 77.02 76.52 75.97 74.33 73.14 72.06 69.90 70.78 69.60 69.91 68.86 69.63 68.40 67.18 67.21 66.04 68.18 68.21 69.49 69.65 69.66 69.63 71.39 70.71 68.58 68.70 67.93 67.61 67.03 67.00 66.77 66.09 66.03 66.43 66.95 67.72 68.14 68.12
74.93 77.32 76.85 77.27 77.20 77.03 76.71 75.74 74.00 72.79 72.49 71.04 70.87 70.71 69.80 69.60 69.11 68.80 67.54 66.21 64.23 64.94 66.42 67.14 70.60 69.69 69.53 69.56 71.46 69.27 69.50 67.01 67.47 67.03 66.36 66.51 66.33 66.76 67.10 67.45 67.83 67.75 68.05
75.44 76.18 76.63 76.71 77.15 77.02 76.62 75.66 73.92 72.73 71.45 71.31 71.19 70.75 69.83 69.47 69.41 69.29 68.22 67.83 65.54 62.16 63.16 66.54 66.37 69.85 71.40 70.83 70.04 69.82 70.54 68.90 67.18 66.62 66.05 65.93 65.84 66.16 66.79 67.42 67.60 67.76 67.80
76.58 76.10 76.60 77.13 77.13 76.76 76.38 75.54 74.47 73.83 71.68 70.63 70.45 70.48 70.09 69.51 69.50 69.20 68.80 68.25 67.39 65.69 62.80 66.94 66.73 69.47 71.11 70.61 70.12 69.95 70.30 68.17 67.00 66.35 65.57 65.17 65.37 65.85 66.27 66.46 66.51 66.65 66.74
77.06 76.86 76.79 76.78 76.52 76.17 76.17 75.13 74.62 73.65 71.76 71.69 70.80 70.38 70.03 70.64 68.48 68.97 68.92 68.50 67.43 66.79 64.51 66.48 67.67 69.12 69.56 70.12 70.08 71.02 70.99 70.99 69.65 66.37 65.41 64.75 64.49 64.64 65.44 65.70 65.68 65.53 65.50
76.93 76.92 76.96 76.53 76.33 76.13 75.94 74.92 73.93 73.27 72.08 71.20 70.88 70.27 69.54 69.01 69.46 70.04 68.59 69.49 68.38 68.57 66.43 66.40 67.76 67.51 68.66 70.35 70.44 70.13 69.28 67.97 68.73 67.31 65.19 64.77 64.39 63.93 63.73 63.62 63.20 62.94 62.42
76.47 76.31 76.53 76.33 75.83 75.81 75.46 75.17 74.58 73.60 72.47 72.05 71.51 70.77 70.13 69.63 68.83 68.99 68.89 68.22 68.38 68.65 68.13 66.49 65.88 67.90 68.10 68.49 68.57 69.14 68.65 68.47 68.22 66.17 62.80 63.05 63.32 63.10 62.64 61.31 60.79 59.59 59.00
75.94 76.17 76.24 76.43 76.60 76.29 75.59 75.01 74.42 73.97 73.06 72.55 72.11 71.74 71.11 70.22 69.63 69.51 68.73 68.93 68.92 68.06 68.28 66.93 66.57 66.45 67.20 67.77 67.30 65.90 65.88 67.37 66.77 67.10 65.86 64.37 64.19 64.23 62.69 61.03 60.57 60.21 58.44
75.83 76.16 75.70 75.80 76.28 75.97 74.97 75.22 74.56 74.05 73.39 72.58 72.41 72.01 71.89 70.87 68.32 68.28 67.96 68.97 69.68 68.11 67.37 66.56 66.05 65.62 65.55 64.15 64.99 66.94 65.52 65.85 65.89 65.42 65.21 66.18 66.11 66.17 66.22 62.37 64.00 62.51 60.03
76.00 76.12 75.50 75.37 75.30 74.73 68.58 67.77 73.16 74.12 73.60 73.48 72.94 72.49 72.41 68.96 67.65 65.17 65.41 66.34 69.20 69.46 68.78 66.75 65.81 65.29 66.63 66.17 65.89 65.95 64.19 63.64 61.51 66.32 65.05 64.22 66.21 65.74 66.21 66.19 63.17 60.88 59.20
76.41 75.81 75.79 75.37 75.02 75.44 64.86 65.19 67.46 75.11 74.53 74.14 74.22 73.84 71.96 70.45 68.53 68.43 64.69 64.04 64.55 64.88 66.89 70.14 67.83 67.66 67.44 67.69 67.49 62.16 65.15 63.52 63.69 65.92 65.15 62.98 65.65 64.14 64.66 64.41 60.95 59.80 58.42
75.34 75.84 75.75 75.92 75.34 75.08 63.72 63.05 66.07 73.81 74.96 75.13 74.54 73.90 72.75 71.20 69.98 69.20 69.17 69.04 68.34 68.68 68.04 68.42 69.78 70.06 69.86 67.10 67.48 67.47 66.77 65.74 65.61 65.13 65.83 60.86 63.33 62.10 62.98 62.69 60.64 59.80 58.24
74.73 74.96 76.00 76.14 75.58 75.53 62.37 61.34 65.08 72.77 74.12 74.71 74.05 73.72 72.81 71.74 67.11 63.62 70.01 70.07 69.55 69.70 65.24 63.13 63.87 62.60 61.78 62.23 64.45 65.19 63.84 61.25 60.65 62.40 64.32 61.01 60.51 60.12 60.44 60.50 60.56 58.92 56.35
74.83 74.32 75.09 76.00 72.41 75.98 62.56 59.82 64.55 72.93 73.15 73.25 73.28 73.46 64.45 68.46 61.75 60.46 67.29 68.92 68.84 68.85 68.39 67.22 66.89 63.33 63.39 64.42 61.74 66.31 65.42 62.56 61.80 59.23 62.70 58.46 58.50 58.47 55.60 58.21 58.64 57.78 57.38

GFSMA_sfc_wetblb_048.txt.gz
Wetbulb
78.31 78.54 78.82 78.68 78.00 77.78 77.80 76.96 77.52 77.39 77.02 76.27 76.80 75.10 72.49 75.16 75.36 75.26 75.07 74.37 74.91 75.24 74.92 74.70 74.76 74.72 75.03 74.78 74.25 74.32 74.05 73.92 73.49 73.13 73.39 73.88 73.59 73.62 72.60 71.91 72.04 72.47 71.99
78.56 78.53 77.86 78.19 78.23 78.87 77.89 77.34 76.45 76.37 76.21 75.63 74.87 75.22 73.98 74.07 76.08 74.89 73.69 75.79 74.86 74.69 74.64 74.98 74.91 74.78 74.92 74.78 74.80 74.70 74.56 74.09 74.13 73.47 73.27 73.69 73.79 73.43 73.19 72.42 72.23 72.27 72.29
78.13 79.32 78.67 77.55 78.33 78.38 77.59 77.92 77.39 77.24 74.02 73.32 72.10 74.87 74.98 74.70 75.52 74.43 74.68 74.44 74.57 74.96 74.88 74.22 74.39 74.97 75.01 75.03 74.54 74.77 74.62 74.75 74.05 73.55 73.50 74.26 74.27 74.12 73.35 72.63 72.77 73.34 73.71
78.29 78.80 77.65 78.19 78.64 78.39 77.74 76.53 76.52 75.26 73.08 71.72 72.90 74.10 73.72 74.41 73.99 75.01 75.04 73.89 74.05 74.21 74.48 74.96 74.82 74.49 74.30 74.76 75.03 74.85 74.52 74.60 75.35 74.80 74.91 74.79 74.54 74.46 74.00 73.96 73.40 73.53 73.51
78.61 78.82 77.53 78.75 79.60 78.07 77.55 77.60 76.23 76.02 73.43 72.97 71.50 73.15 72.80 72.83 72.19 71.71 73.26 74.68 74.77 73.88 74.87 75.54 75.45 74.84 73.50 74.05 74.47 74.83 74.89 74.94 75.14 74.49 74.99 75.07 74.59 74.56 74.52 74.27 74.48 73.98 73.55
79.28 79.20 78.11 78.47 78.17 76.85 76.98 77.66 75.54 76.39 74.71 73.53 69.84 70.10 72.49 72.83 73.57 72.46 72.85 74.06 74.48 75.19 74.85 76.30 74.98 74.42 74.86 73.36 73.58 74.08 75.08 75.15 74.82 74.79 74.72 74.43 74.25 74.77 74.90 74.67 74.52 74.40 74.00
79.46 79.79 78.10 77.91 77.98 76.67 75.90 76.21 75.87 74.76 74.78 74.60 68.91 68.65 70.36 71.69 71.58 72.42 72.92 72.66 72.58 73.24 73.91 74.29 75.11 74.67 74.55 74.11 73.06 72.76 73.20 73.91 74.25 74.14 74.17 74.50 73.73 73.85 74.04 73.57 74.08 74.29 74.42
79.51 79.27 79.80 77.71 78.49 77.12 76.24 76.10 75.48 75.02 74.48 72.93 68.77 69.31 65.76 67.74 69.91 72.01 74.20 72.51 72.16 72.12 71.76 72.39 73.26 74.82 75.52 75.08 75.27 73.26 73.81 73.69 73.38 73.55 73.06 72.49 72.26 71.55 72.12 72.80 73.32 73.18 73.50
79.15 79.64 79.05 78.61 78.43 77.34 75.85 76.43 76.18 75.38 72.48 73.19 71.39 69.10 65.58 65.23 66.90 70.07 72.01 72.51 72.35 71.78 71.28 71.91 72.93 74.33 75.30 73.48 72.66 72.70 73.07 73.30 73.15 72.56 70.85 69.20 68.42 68.39 68.93 69.57 70.11 70.30 70.48
78.50 78.94 79.01 78.60 79.32 77.38 77.36 76.77 76.59 75.82 74.77 70.81 70.30 70.28 72.05 72.03 65.46 65.23 69.53 71.39 72.00 71.69 72.75 71.71 71.98 72.53 71.90 68.49 68.63 70.35 69.57 69.06 68.58 67.59 66.95 66.34 66.53 66.65 67.01 67.31 67.65 67.79 68.18
78.86 78.26 78.77 78.35 78.56 78.26 78.23 78.07 76.92 76.52 74.36 72.13 68.37 69.68 70.41 69.81 70.92 67.37 66.12 67.98 70.44 71.32 71.93 71.24 71.60 71.57 71.64 70.38 69.92 67.27 67.57 67.87 67.87 67.04 66.49 66.01 65.53 65.65 65.97 66.20 66.15 66.31 66.64
77.15 78.67 78.51 78.86 79.37 78.97 78.41 78.10 77.87 76.91 75.76 74.36 70.17 70.55 68.78 67.68 67.46 67.73 66.47 68.64 68.52 70.20 71.26 71.71 71.34 71.26 71.68 71.04 70.06 68.75 68.83 68.02 67.10 65.74 65.28 65.16 65.57 65.86 66.59 67.22 67.58 67.71 67.65
75.53 77.81 78.64 78.34 78.38 79.32 78.93 78.95 78.20 77.02 76.29 74.70 73.50 69.01 69.63 69.60 69.81 68.37 67.67 68.23 66.67 69.49 69.72 70.95 71.58 71.64 71.22 71.89 71.48 69.19 68.92 68.57 68.13 67.70 67.51 66.49 66.50 66.79 67.09 67.23 67.71 68.17 68.43
75.83 78.03 77.78 78.37 78.92 78.79 79.07 79.03 77.74 76.66 76.46 75.45 74.27 73.51 69.69 69.70 70.49 69.37 67.61 66.94 65.15 66.19 67.67 69.03 71.12 70.84 71.32 71.49 72.47 70.79 69.94 67.76 67.85 67.87 67.48 67.24 67.00 67.61 67.91 68.04 68.21 68.25 68.41
76.71 77.53 77.60 78.08 78.43 78.73 79.07 79.00 77.46 76.92 76.23 75.77 74.82 74.18 71.78 69.62 70.81 70.29 69.49 68.46 66.35 63.59 64.70 69.01 66.96 71.76 71.85 71.62 72.30 72.03 71.69 69.60 68.22 67.36 66.53 66.61 66.80 66.95 67.41 67.99 68.16 68.18 68.48
79.32 78.01 77.63 77.66 78.14 78.56 78.95 79.07 77.98 77.79 76.50 75.07 74.26 74.00 73.38 70.31 70.99 70.55 69.87 68.88 68.41 66.25 63.98 67.71 68.03 70.28 71.17 70.33 71.60 71.54 71.90 70.30 68.50 67.27 66.54 66.10 65.99 66.20 66.58 66.81 66.83 67.01 67.13
80.57 79.06 79.23 77.75 77.42 78.27 78.97 78.68 78.45 77.85 76.49 75.66 74.83 73.87 73.67 74.13 69.89 69.83 69.96 69.39 68.77 68.24 65.37 67.22 69.03 71.24 71.65 71.67 71.14 71.60 71.93 71.51 70.73 67.03 67.06 65.90 65.22 65.15 65.50 65.90 66.28 66.21 66.11
80.68 80.63 79.52 78.94 78.09 77.96 79.16 78.34 77.64 77.06 76.32 75.32 74.58 74.03 73.18 71.80 72.21 73.19 70.11 72.58 70.82 71.72 67.37 68.60 70.32 68.79 70.66 72.07 72.15 72.02 70.78 69.89 69.77 67.98 66.88 65.79 65.39 65.13 65.00 64.89 64.95 64.33 63.82
80.12 79.69 80.04 79.84 79.10 78.57 78.65 78.32 78.07 77.41 76.66 76.02 75.26 74.41 73.33 72.75 71.58 71.25 70.91 70.31 69.66 69.41 69.62 67.65 67.36 69.39 69.57 70.61 70.82 71.50 71.08 71.09 69.21 67.71 64.08 64.08 63.94 64.42 64.02 63.19 62.53 61.47 60.09
79.77 79.98 80.18 80.29 79.81 79.36 78.89 78.22 77.68 77.47 77.38 76.41 76.10 75.25 74.33 73.22 72.18 71.80 71.04 71.80 71.48 69.79 70.27 68.37 67.28 67.33 68.63 70.96 69.69 68.18 68.22 69.06 68.56 69.61 68.56 65.48 66.17 65.29 64.35 62.53 61.99 61.34 59.13
79.74 80.01 79.79 80.11 79.90 79.27 77.51 78.65 78.78 78.15 78.08 76.76 76.54 75.67 74.90 73.58 70.08 71.16 70.93 72.21 71.85 69.63 67.43 67.39 67.08 67.09 67.17 67.09 67.53 67.90 67.24 67.63 69.67 69.85 68.13 68.18 67.98 68.20 67.81 62.58 65.11 63.14 61.23
79.80 79.72 79.51 79.61 79.13 77.99 70.52 67.93 75.58 78.16 78.17 77.58 76.91 76.77 76.56 71.81 70.91 66.54 66.42 67.49 69.95 70.54 69.05 67.32 67.24 67.30 70.06 68.44 68.58 67.65 66.97 65.98 64.53 68.78 67.90 67.17 67.97 67.11 67.51 67.79 63.33 61.35 60.14
79.09 79.24 79.24 79.23 78.90 79.29 66.77 65.79 68.55 78.06 77.93 77.99 78.17 77.75 75.26 74.70 72.11 73.28 66.32 64.75 65.80 65.69 67.07 72.09 69.98 70.09 70.01 70.71 70.41 69.15 68.99 66.87 65.97 68.48 68.00 65.38 67.23 66.35 66.97 66.63 62.13 60.79 59.40
78.67 79.04 79.12 79.18 79.18 78.97 66.20 63.57 66.55 76.48 77.74 78.61 78.70 78.45 77.89 77.22 75.98 73.93 72.33 69.62 68.72 69.15 69.54 69.97 71.25 71.60 72.45 72.57 71.95 70.93 69.24 69.48 68.95 68.06 68.60 63.26 65.71 64.24 65.43 64.95 62.17 60.60 59.06
78.03 77.81 78.26 79.18 79.20 78.70 63.33 61.36 65.67 75.54 75.94 77.84 78.84 78.92 78.37 77.77 70.81 65.26 73.04 70.83 68.34 69.07 66.59 63.85 64.09 66.04 64.28 64.53 67.17 68.90 66.18 66.01 63.32 65.38 66.72 63.91 63.27 61.71 62.65 62.40 62.98 60.71 56.72
76.88 76.86 76.87 78.38 73.94 78.45 67.03 59.60 63.76 73.88 73.94 73.77 76.30 76.85 67.36 74.37 64.77 61.77 71.59 70.90 69.26 69.37 70.59 69.61 68.60 64.77 65.26 65.29 62.80 68.66 69.70 65.40 64.12 63.12 65.53 62.42 60.26 60.03 57.83 60.82 60.71 60.48 59.74